Wetterdaten: Montag, 12.05.2014
Datum Zeit Temp. Aussen +5cm Feuchte Auss Luftdruck Regen Sonnenschein Regendauer UV Solar Windben
12.05.2014 00:00 9,9 C 7,2 C 87 % 1006,3 hPa 0,0 l/m 0 min 0 min 0,0 UV-I 0 W/m 10,3 km/h (2 Bft)
12.05.2014 00:02 9,9 C 7,2 C 86 % 1006,4 hPa 0,0 l/m 0 min 0 min 0,0 UV-I 0 W/m 0,0 km/h (0 Bft)
12.05.2014 00:05 9,9 C 7,2 C 86 % 1006,3 hPa 0,0 l/m 0 min 0 min 0,0 UV-I 0 W/m 12,9 km/h (3 Bft)
12.05.2014 00:06 9,9 C 7,2 C 86 % 1006,3 hPa 0,0 l/m 0 min 0 min 0,0 UV-I 0 W/m 12,9 km/h (3 Bft)
12.05.2014 00:08 9,9 C 7,2 C 86 % 1006,3 hPa 0,0 l/m 0 min 0 min 0,0 UV-I 0 W/m 5,1 km/h (1 Bft)
12.05.2014 00:10 9,9 C 7,2 C 86 % 1006,4 hPa 0,0 l/m 0 min 0 min 0,0 UV-I 0 W/m 18,0 km/h (3 Bft)
12.05.2014 00:12 9,9 C 7,2 C 86 % 1006,4 hPa 0,0 l/m 0 min 0 min 0,0 UV-I 0 W/m 2,6 km/h (1 Bft)
12.05.2014 00:14 9,9 C 7,2 C 86 % 1006,5 hPa 0,0 l/m 0 min 0 min 0,0 UV-I 0 W/m 10,3 km/h (2 Bft)
12.05.2014 00:16 9,9 C 7,2 C 86 % 1006,4 hPa 0,0 l/m 0 min 0 min 0,0 UV-I 0 W/m 18,0 km/h (3 Bft)
12.05.2014 00:18 9,9 C 7,2 C 86 % 1006,4 hPa 0,0 l/m 0 min 0 min 0,0 UV-I 0 W/m 7,7 km/h (2 Bft)
12.05.2014 00:20 9,9 C 7,2 C 86 % 1006,4 hPa 0,0 l/m 0 min 0 min 0,0 UV-I 0 W/m 7,7 km/h (2 Bft)
12.05.2014 00:22 9,9 C 7,2 C 86 % 1006,4 hPa 0,0 l/m 0 min 0 min 0,0 UV-I 0 W/m 15,4 km/h (3 Bft)
12.05.2014 00:24 9,9 C 7,2 C 85 % 1006,4 hPa 0,0 l/m 0 min 0 min 0,0 UV-I 0 W/m 10,3 km/h (2 Bft)
12.05.2014 00:26 9,9 C 7,2 C 85 % 1006,5 hPa 0,0 l/m 0 min 0 min 0,0 UV-I 0 W/m 15,4 km/h (3 Bft)
12.05.2014 00:28 9,9 C 7,2 C 85 % 1006,4 hPa 0,0 l/m 0 min 0 min 0,0 UV-I 0 W/m 12,9 km/h (3 Bft)
12.05.2014 00:30 9,9 C 7,2 C 85 % 1006,4 hPa 0,0 l/m 0 min 0 min 0,0 UV-I 0 W/m 10,3 km/h (2 Bft)
12.05.2014 00:32 9,8 C 7,2 C 85 % 1006,5 hPa 0,0 l/m 0 min 0 min 0,0 UV-I 0 W/m 2,6 km/h (1 Bft)
12.05.2014 00:34 9,8 C 7,2 C 85 % 1006,4 hPa 0,0 l/m 0 min 0 min 0,0 UV-I 0 W/m 20,6 km/h (4 Bft)
12.05.2014 00:36 9,8 C 7,2 C 85 % 1006,3 hPa 0,0 l/m 0 min 0 min 0,0 UV-I 0 W/m 15,4 km/h (3 Bft)
12.05.2014 00:38 9,9 C 7,2 C 85 % 1006,4 hPa 0,0 l/m 0 min 0 min 0,0 UV-I 0 W/m 12,9 km/h (3 Bft)
12.05.2014 00:40 9,9 C 7,2 C 85 % 1006,4 hPa 0,0 l/m 0 min 0 min 0,0 UV-I 0 W/m 7,7 km/h (2 Bft)
12.05.2014 00:42 9,9 C 7,2 C 85 % 1006,5 hPa 0,0 l/m 0 min 0 min 0,0 UV-I 0 W/m 2,6 km/h (1 Bft)
12.05.2014 00:44 9,8 C 7,2 C 85 % 1006,5 hPa 0,0 l/m 0 min 0 min 0,0 UV-I 0 W/m 7,7 km/h (2 Bft)
12.05.2014 00:46 9,8 C 7,2 C 84 % 1006,5 hPa 0,0 l/m 0 min 0 min 0,0 UV-I 0 W/m 15,4 km/h (3 Bft)
12.05.2014 00:48 9,8 C 7,2 C 85 % 1006,5 hPa 0,0 l/m 0 min 0 min 0,0 UV-I 0 W/m 10,3 km/h (2 Bft)
12.05.2014 00:50 9,8 C 7,2 C 85 % 1006,5 hPa 0,0 l/m 0 min 0 min 0,0 UV-I 0 W/m 33,5 km/h (5 Bft)
12.05.2014 00:52 9,8 C 7,2 C 84 % 1006,6 hPa 0,0 l/m 0 min 0 min 0,0 UV-I 0 W/m 28,3 km/h (4 Bft)
12.05.2014 00:54 9,7 C 7,2 C 85 % 1006,6 hPa 0,0 l/m 0 min 0 min 0,0 UV-I 0 W/m 7,7 km/h (2 Bft)
12.05.2014 00:56 9,7 C 7,2 C 85 % 1006,6 hPa 0,0 l/m 0 min 0 min 0,0 UV-I 0 W/m 15,4 km/h (3 Bft)
12.05.2014 00:58 9,6 C 7,2 C 85 % 1006,6 hPa 0,0 l/m 0 min 0 min 0,0 UV-I 0 W/m 7,7 km/h (2 Bft)
12.05.2014 01:00 9,6 C 7,2 C 85 % 1006,6 hPa 0,0 l/m 0 min 0 min 0,0 UV-I 0 W/m 15,4 km/h (3 Bft)
12.05.2014 01:02 9,6 C 7,2 C 85 % 1006,6 hPa 0,0 l/m 0 min 0 min 0,0 UV-I 0 W/m 12,9 km/h (3 Bft)
12.05.2014 01:06 9,6 C 7,2 C 85 % 1006,7 hPa 0,0 l/m 0 min 0 min 0,0 UV-I 0 W/m 12,9 km/h (3 Bft)
12.05.2014 01:08 9,7 C 7,2 C 85 % 1006,7 hPa 0,0 l/m 0 min 0 min 0,0 UV-I 0 W/m 12,9 km/h (3 Bft)
12.05.2014 01:10 9,7 C 7,2 C 85 % 1006,7 hPa 0,0 l/m 0 min 0 min 0,0 UV-I 0 W/m 12,9 km/h (3 Bft)
12.05.2014 01:12 9,7 C 7,2 C 85 % 1006,7 hPa 0,0 l/m 0 min 0 min 0,0 UV-I 0 W/m 12,9 km/h (3 Bft)
12.05.2014 01:14 9,7 C 7,2 C 85 % 1006,7 hPa 0,0 l/m 0 min 0 min 0,0 UV-I 0 W/m 12,9 km/h (3 Bft)
12.05.2014 01:16 9,7 C 7,2 C 85 % 1006,7 hPa 0,0 l/m 0 min 0 min 0,0 UV-I 0 W/m 25,7 km/h (4 Bft)
12.05.2014 01:18 9,7 C 7,2 C 85 % 1006,7 hPa 0,0 l/m 0 min 0 min 0,0 UV-I 0 W/m 10,3 km/h (2 Bft)
12.05.2014 01:20 9,7 C 7,2 C 85 % 1006,7 hPa 0,0 l/m 0 min 0 min 0,0 UV-I 0 W/m 15,4 km/h (3 Bft)
12.05.2014 01:22 9,7 C 7,2 C 84 % 1006,7 hPa 0,0 l/m 0 min 0 min 0,0 UV-I 0 W/m 20,6 km/h (4 Bft)
12.05.2014 01:24 9,7 C 7,2 C 84 % 1006,8 hPa 0,0 l/m 0 min 0 min 0,0 UV-I 0 W/m 10,3 km/h (2 Bft)
12.05.2014 01:26 9,7 C 7,2 C 84 % 1006,7 hPa 0,0 l/m 0 min 0 min 0,0 UV-I 0 W/m 10,3 km/h (2 Bft)
12.05.2014 01:28 9,7 C 7,2 C 84 % 1006,8 hPa 0,0 l/m 0 min 0 min 0,0 UV-I 0 W/m 12,9 km/h (3 Bft)
12.05.2014 01:30 9,7 C 7,8 C 84 % 1006,8 hPa 0,0 l/m 0 min 0 min 0,0 UV-I 0 W/m 12,9 km/h (3 Bft)
12.05.2014 01:32 9,6 C 7,8 C 84 % 1006,8 hPa 0,0 l/m 0 min 0 min 0,0 UV-I 0 W/m 12,9 km/h (3 Bft)
12.05.2014 01:34 9,7 C 7,8 C 84 % 1006,8 hPa 0,0 l/m 0 min 0 min 0,0 UV-I 0 W/m 18,0 km/h (3 Bft)
12.05.2014 01:36 9,7 C 7,8 C 84 % 1006,8 hPa 0,0 l/m 0 min 0 min 0,0 UV-I 0 W/m 20,6 km/h (4 Bft)
12.05.2014 01:38 9,7 C 7,8 C 84 % 1006,8 hPa 0,0 l/m 0 min 0 min 0,0 UV-I 0 W/m 10,3 km/h (2 Bft)
12.05.2014 01:40 9,7 C 7,8 C 84 % 1006,8 hPa 0,0 l/m 0 min 0 min 0,0 UV-I 0 W/m 15,4 km/h (3 Bft)
12.05.2014 01:42 9,7 C 7,8 C 84 % 1006,8 hPa 0,0 l/m 0 min 0 min 0,0 UV-I 0 W/m 18,0 km/h (3 Bft)
12.05.2014 01:44 9,7 C 7,8 C 84 % 1006,8 hPa 0,0 l/m 0 min 0 min 0,0 UV-I 0 W/m 10,3 km/h (2 Bft)
12.05.2014 01:46 9,7 C 7,8 C 84 % 1006,8 hPa 0,0 l/m 0 min 0 min 0,0 UV-I 0 W/m 15,4 km/h (3 Bft)
12.05.2014 01:48 9,6 C 7,8 C 84 % 1006,8 hPa 0,0 l/m 0 min 0 min 0,0 UV-I 0 W/m 7,7 km/h (2 Bft)
12.05.2014 01:50 9,6 C 7,8 C 84 % 1006,8 hPa 0,0 l/m 0 min 0 min 0,0 UV-I 0 W/m 10,3 km/h (2 Bft)
12.05.2014 01:52 9,6 C 7,8 C 84 % 1006,8 hPa 0,0 l/m 0 min 0 min 0,0 UV-I 0 W/m 12,9 km/h (3 Bft)
12.05.2014 01:54 9,6 C 7,8 C 84 % 1006,8 hPa 0,0 l/m 0 min 0 min 0,0 UV-I 0 W/m 7,7 km/h (2 Bft)
12.05.2014 01:56 9,6 C 7,8 C 84 % 1006,8 hPa 0,0 l/m 0 min 0 min 0,0 UV-I 0 W/m 7,7 km/h (2 Bft)
12.05.2014 01:58 9,6 C 7,8 C 84 % 1006,9 hPa 0,0 l/m 0 min 0 min 0,0 UV-I 0 W/m 7,7 km/h (2 Bft)
12.05.2014 02:00 9,6 C 7,8 C 84 % 1006,9 hPa 0,0 l/m 0 min 0 min 0,0 UV-I 0 W/m 12,9 km/h (3 Bft)
12.05.2014 02:02 9,6 C 7,8 C 84 % 1006,9 hPa 0,0 l/m 0 min 0 min 0,0 UV-I 0 W/m 18,0 km/h (3 Bft)
12.05.2014 02:06 9,6 C 7,8 C 84 % 1006,9 hPa 0,0 l/m 0 min 0 min 0,0 UV-I 0 W/m 12,9 km/h (3 Bft)
12.05.2014 02:08 9,6 C 7,8 C 84 % 1006,9 hPa 0,0 l/m 0 min 0 min 0,0 UV-I 0 W/m 18,0 km/h (3 Bft)
12.05.2014 02:10 9,6 C 7,8 C 84 % 1006,8 hPa 0,0 l/m 0 min 0 min 0,0 UV-I 0 W/m 7,7 km/h (2 Bft)
12.05.2014 02:12 9,7 C 7,8 C 84 % 1006,9 hPa 0,0 l/m 0 min 0 min 0,0 UV-I 0 W/m 20,6 km/h (4 Bft)
12.05.2014 02:14 9,7 C 7,8 C 84 % 1006,9 hPa 0,0 l/m 0 min 0 min 0,0 UV-I 0 W/m 7,7 km/h (2 Bft)
12.05.2014 02:16 9,7 C 7,8 C 84 % 1007,0 hPa 0,0 l/m 0 min 0 min 0,0 UV-I 0 W/m 18,0 km/h (3 Bft)
12.05.2014 02:18 9,7 C 7,8 C 84 % 1006,9 hPa 0,0 l/m 0 min 0 min 0,0 UV-I 0 W/m 0,0 km/h (0 Bft)
12.05.2014 02:20 9,7 C 7,8 C 84 % 1006,9 hPa 0,0 l/m 0 min 0 min 0,0 UV-I 0 W/m 12,9 km/h (3 Bft)
12.05.2014 02:22 9,7 C 7,8 C 84 % 1007,0 hPa 0,0 l/m 0 min 0 min 0,0 UV-I 0 W/m 12,9 km/h (3 Bft)
12.05.2014 02:24 9,7 C 7,8 C 84 % 1007,0 hPa 0,0 l/m 0 min 0 min 0,0 UV-I 0 W/m 12,9 km/h (3 Bft)
12.05.2014 02:26 9,7 C 7,8 C 84 % 1006,9 hPa 0,0 l/m 0 min 0 min 0,0 UV-I 0 W/m 10,3 km/h (2 Bft)
12.05.2014 02:28 9,7 C 7,8 C 85 % 1007,0 hPa 0,0 l/m 0 min 0 min 0,0 UV-I 0 W/m 10,3 km/h (2 Bft)
12.05.2014 02:30 9,7 C 8,3 C 84 % 1007,0 hPa 0,0 l/m 0 min 0 min 0,0 UV-I 0 W/m 23,2 km/h (4 Bft)
12.05.2014 02:32 9,7 C 8,3 C 84 % 1007,0 hPa 0,0 l/m 0 min 0 min 0,0 UV-I 0 W/m 10,3 km/h (2 Bft)
12.05.2014 02:34 9,7 C 8,3 C 84 % 1006,9 hPa 0,0 l/m 0 min 0 min 0,0 UV-I 0 W/m 20,6 km/h (4 Bft)
12.05.2014 02:36 9,7 C 7,8 C 84 % 1006,9 hPa 0,0 l/m 0 min 0 min 0,0 UV-I 0 W/m 10,3 km/h (2 Bft)
12.05.2014 02:38 9,7 C 8,3 C 84 % 1006,9 hPa 0,0 l/m 0 min 0 min 0,0 UV-I 0 W/m 15,4 km/h (3 Bft)
12.05.2014 02:40 9,7 C 8,3 C 84 % 1006,9 hPa 0,0 l/m 0 min 0 min 0,0 UV-I 0 W/m 7,7 km/h (2 Bft)
12.05.2014 02:42 9,7 C 8,3 C 84 % 1006,9 hPa 0,0 l/m 0 min 0 min 0,0 UV-I 0 W/m 20,6 km/h (4 Bft)
12.05.2014 02:44 9,7 C 8,3 C 84 % 1006,9 hPa 0,0 l/m 0 min 0 min 0,0 UV-I 0 W/m 12,9 km/h (3 Bft)
12.05.2014 02:46 9,7 C 8,3 C 84 % 1006,9 hPa 0,0 l/m 0 min 0 min 0,0 UV-I 0 W/m 15,4 km/h (3 Bft)
12.05.2014 02:48 9,7 C 8,3 C 84 % 1006,9 hPa 0,0 l/m 0 min 0 min 0,0 UV-I 0 W/m 7,7 km/h (2 Bft)
12.05.2014 02:50 9,7 C 8,3 C 84 % 1006,9 hPa 0,0 l/m 0 min 0 min 0,0 UV-I 0 W/m 15,4 km/h (3 Bft)
12.05.2014 02:52 9,7 C 8,3 C 84 % 1006,8 hPa 0,0 l/m 0 min 0 min 0,0 UV-I 0 W/m 7,7 km/h (2 Bft)
12.05.2014 02:54 9,6 C 7,8 C 85 % 1006,9 hPa 0,0 l/m 0 min 0 min 0,0 UV-I 0 W/m 12,9 km/h (3 Bft)
12.05.2014 02:56 9,6 C 7,8 C 85 % 1006,9 hPa 0,0 l/m 0 min 0 min 0,0 UV-I 0 W/m 7,7 km/h (2 Bft)
12.05.2014 02:58 9,6 C 7,8 C 84 % 1006,9 hPa 0,0 l/m 0 min 0 min 0,0 UV-I 0 W/m 15,4 km/h (3 Bft)
12.05.2014 03:00 9,5 C 7,8 C 84 % 1006,9 hPa 0,0 l/m 0 min 0 min 0,0 UV-I 0 W/m 12,9 km/h (3 Bft)
12.05.2014 03:02 9,5 C 7,8 C 85 % 1006,9 hPa 0,0 l/m 0 min 0 min 0,0 UV-I 0 W/m 7,7 km/h (2 Bft)
12.05.2014 03:06 9,4 C 7,8 C 85 % 1007,1 hPa 0,0 l/m 0 min 0 min 0,0 UV-I 0 W/m 23,2 km/h (4 Bft)
12.05.2014 03:08 9,4 C 7,8 C 85 % 1007,0 hPa 0,0 l/m 0 min 0 min 0,0 UV-I 0 W/m 25,7 km/h (4 Bft)
12.05.2014 03:10 9,4 C 7,8 C 85 % 1007,0 hPa 0,0 l/m 0 min 0 min 0,0 UV-I 0 W/m 15,4 km/h (3 Bft)
12.05.2014 03:12 9,4 C 7,8 C 85 % 1007,0 hPa 0,0 l/m 0 min 0 min 0,0 UV-I 0 W/m 15,4 km/h (3 Bft)
12.05.2014 03:14 9,4 C 7,8 C 85 % 1007,0 hPa 0,0 l/m 0 min 0 min 0,0 UV-I 0 W/m 12,9 km/h (3 Bft)
12.05.2014 03:16 9,4 C 7,8 C 85 % 1007,0 hPa 0,0 l/m 0 min 0 min 0,0 UV-I 0 W/m 12,9 km/h (3 Bft)
12.05.2014 03:18 9,5 C 7,8 C 85 % 1007,0 hPa 0,0 l/m 0 min 0 min 0,0 UV-I 0 W/m 15,4 km/h (3 Bft)
12.05.2014 03:20 9,4 C 7,8 C 85 % 1007,0 hPa 0,0 l/m 0 min 0 min 0,0 UV-I 0 W/m 7,7 km/h (2 Bft)
12.05.2014 03:22 9,4 C 7,8 C 85 % 1006,9 hPa 0,0 l/m 0 min 0 min 0,0 UV-I 0 W/m 15,4 km/h (3 Bft)
12.05.2014 03:24 9,4 C 7,8 C 85 % 1006,9 hPa 0,0 l/m 0 min 0 min 0,0 UV-I 0 W/m 5,1 km/h (1 Bft)
12.05.2014 03:26 9,4 C 7,8 C 85 % 1007,0 hPa 0,0 l/m 0 min 0 min 0,0 UV-I 0 W/m 30,9 km/h (5 Bft)
12.05.2014 03:28 9,4 C 7,8 C 85 % 1007,0 hPa 0,0 l/m 0 min 0 min 0,0 UV-I 0 W/m 25,7 km/h (4 Bft)
12.05.2014 03:30 9,4 C 7,8 C 85 % 1006,9 hPa 0,0 l/m 0 min 0 min 0,0 UV-I 0 W/m 18,0 km/h (3 Bft)
12.05.2014 03:32 9,4 C 7,8 C 85 % 1007,0 hPa 0,0 l/m 0 min 0 min 0,0 UV-I 0 W/m 18,0 km/h (3 Bft)
12.05.2014 03:34 9,4 C 7,8 C 85 % 1006,9 hPa 0,0 l/m 0 min 0 min 0,0 UV-I 0 W/m 7,7 km/h (2 Bft)
12.05.2014 03:36 9,4 C 7,8 C 85 % 1006,9 hPa 0,0 l/m 0 min 0 min 0,0 UV-I 0 W/m 18,0 km/h (3 Bft)
12.05.2014 03:38 9,4 C 7,8 C 85 % 1006,9 hPa 0,0 l/m 0 min 0 min 0,0 UV-I 0 W/m 15,4 km/h (3 Bft)
12.05.2014 03:40 9,4 C 7,8 C 86 % 1006,9 hPa 0,0 l/m 0 min 0 min 0,0 UV-I 0 W/m 18,0 km/h (3 Bft)
12.05.2014 03:42 9,4 C 7,8 C 86 % 1007,0 hPa 0,0 l/m 0 min 0 min 0,0 UV-I 0 W/m 23,2 km/h (4 Bft)
12.05.2014 03:44 9,4 C 7,8 C 86 % 1006,9 hPa 0,0 l/m 0 min 0 min 0,0 UV-I 0 W/m 10,3 km/h (2 Bft)
12.05.2014 03:46 9,4 C 7,8 C 86 % 1007,0 hPa 0,0 l/m 0 min 0 min 0,0 UV-I 0 W/m 15,4 km/h (3 Bft)
12.05.2014 03:48 9,4 C 7,8 C 86 % 1006,9 hPa 0,0 l/m 0 min 0 min 0,0 UV-I 0 W/m 18,0 km/h (3 Bft)
12.05.2014 03:50 9,4 C 7,8 C 86 % 1006,9 hPa 0,0 l/m 0 min 0 min 0,0 UV-I 0 W/m 18,0 km/h (3 Bft)
12.05.2014 03:52 9,4 C 7,8 C 86 % 1006,9 hPa 0,0 l/m 0 min 0 min 0,0 UV-I 0 W/m 23,2 km/h (4 Bft)
12.05.2014 03:54 9,4 C 7,8 C 86 % 1007,0 hPa 0,0 l/m 0 min 2 min 0,0 UV-I 0 W/m 20,6 km/h (4 Bft)
12.05.2014 03:56 9,4 C 7,8 C 86 % 1007,1 hPa 0,0 l/m 0 min 0 min 0,0 UV-I 0 W/m 20,6 km/h (4 Bft)
12.05.2014 03:58 9,4 C 7,8 C 86 % 1007,0 hPa 0,0 l/m 0 min 0 min 0,0 UV-I 0 W/m 15,4 km/h (3 Bft)
12.05.2014 04:00 9,4 C 7,8 C 86 % 1007,1 hPa 0,0 l/m 0 min 2 min 0,0 UV-I 0 W/m 20,6 km/h (4 Bft)
12.05.2014 04:05 9,3 C 7,8 C 86 % 1007,0 hPa 0,0 l/m 0 min 2 min 0,0 UV-I 0 W/m 18,0 km/h (3 Bft)
12.05.2014 04:06 9,3 C 7,8 C 87 % 1007,0 hPa 0,0 l/m 0 min 1 min 0,0 UV-I 0 W/m 15,4 km/h (3 Bft)
12.05.2014 04:10 9,3 C 7,8 C 87 % 1007,0 hPa 0,0 l/m 0 min 0 min 0,0 UV-I 0 W/m 15,4 km/h (3 Bft)
12.05.2014 04:12 9,3 C 7,8 C 87 % 1007,0 hPa 0,0 l/m 0 min 0 min 0,0 UV-I 0 W/m 12,9 km/h (3 Bft)
12.05.2014 04:14 9,2 C 7,8 C 87 % 1006,9 hPa 0,0 l/m 0 min 2 min 0,0 UV-I 0 W/m 10,3 km/h (2 Bft)
12.05.2014 04:16 9,2 C 7,8 C 87 % 1007,0 hPa 0,0 l/m 0 min 2 min 0,0 UV-I 0 W/m 10,3 km/h (2 Bft)
12.05.2014 04:18 9,2 C 7,8 C 87 % 1007,0 hPa 0,0 l/m 0 min 2 min 0,0 UV-I 0 W/m 12,9 km/h (3 Bft)
12.05.2014 04:20 9,2 C 7,8 C 87 % 1007,0 hPa 0,0 l/m 0 min 2 min 0,0 UV-I 0 W/m 20,6 km/h (4 Bft)
12.05.2014 04:22 9,2 C 7,8 C 87 % 1007,0 hPa 0,0 l/m 0 min 2 min 0,0 UV-I 0 W/m 7,7 km/h (2 Bft)
12.05.2014 04:24 9,2 C 7,8 C 87 % 1007,0 hPa 0,0 l/m 0 min 2 min 0,0 UV-I 0 W/m 12,9 km/h (3 Bft)
12.05.2014 04:26 9,2 C 7,8 C 87 % 1007,0 hPa 0,0 l/m 0 min 2 min 0,0 UV-I 0 W/m 18,0 km/h (3 Bft)
12.05.2014 04:28 9,2 C 7,8 C 87 % 1007,0 hPa 0,0 l/m 0 min 2 min 0,0 UV-I 0 W/m 25,7 km/h (4 Bft)
12.05.2014 04:30 9,2 C 7,8 C 87 % 1007,0 hPa 0,0 l/m 0 min 0 min 0,0 UV-I 0 W/m 25,7 km/h (4 Bft)
12.05.2014 04:32 9,2 C 7,8 C 87 % 1007,0 hPa 0,0 l/m 0 min 0 min 0,0 UV-I 0 W/m 10,3 km/h (2 Bft)
12.05.2014 04:34 9,2 C 7,8 C 87 % 1007,0 hPa 0,0 l/m 0 min 2 min 0,0 UV-I 0 W/m 18,0 km/h (3 Bft)
12.05.2014 04:36 9,2 C 7,8 C 87 % 1007,0 hPa 0,0 l/m 0 min 2 min 0,0 UV-I 0 W/m 25,7 km/h (4 Bft)
12.05.2014 04:38 9,2 C 7,8 C 87 % 1007,0 hPa 0,0 l/m 0 min 0 min 0,0 UV-I 0 W/m 18,0 km/h (3 Bft)
12.05.2014 04:40 9,2 C 7,8 C 87 % 1006,9 hPa 0,0 l/m 0 min 0 min 0,0 UV-I 0 W/m 20,6 km/h (4 Bft)
12.05.2014 04:42 9,2 C 7,8 C 87 % 1006,9 hPa 0,0 l/m 0 min 0 min 0,0 UV-I 0 W/m 20,6 km/h (4 Bft)
12.05.2014 04:44 9,2 C 7,8 C 87 % 1006,9 hPa 0,0 l/m 0 min 0 min 0,0 UV-I 0 W/m 12,9 km/h (3 Bft)
12.05.2014 04:46 9,3 C 7,8 C 87 % 1007,0 hPa 0,0 l/m 0 min 0 min 0,0 UV-I 0 W/m 28,3 km/h (4 Bft)
12.05.2014 04:48 9,3 C 7,8 C 87 % 1006,9 hPa 0,0 l/m 0 min 0 min 0,0 UV-I 0 W/m 20,6 km/h (4 Bft)
12.05.2014 04:50 9,3 C 7,8 C 87 % 1006,9 hPa 0,0 l/m 0 min 0 min 0,0 UV-I 0 W/m 25,7 km/h (4 Bft)
12.05.2014 04:52 9,3 C 7,8 C 87 % 1007,0 hPa 0,0 l/m 0 min 0 min 0,0 UV-I 0 W/m 12,9 km/h (3 Bft)
12.05.2014 04:54 9,3 C 7,8 C 87 % 1007,0 hPa 0,0 l/m 0 min 0 min 0,0 UV-I 0 W/m 7,7 km/h (2 Bft)
12.05.2014 04:56 9,3 C 7,8 C 87 % 1006,9 hPa 0,0 l/m 0 min 0 min 0,0 UV-I 0 W/m 5,1 km/h (1 Bft)
12.05.2014 04:58 9,3 C 7,8 C 87 % 1007,0 hPa 0,0 l/m 0 min 0 min 0,0 UV-I 0 W/m 15,4 km/h (3 Bft)
12.05.2014 05:00 9,3 C 7,8 C 87 % 1007,1 hPa 0,0 l/m 0 min 0 min 0,0 UV-I 0 W/m 30,9 km/h (5 Bft)
12.05.2014 05:02 9,3 C 7,8 C 87 % 1007,0 hPa 0,0 l/m 0 min 0 min 0,0 UV-I 0 W/m 25,7 km/h (4 Bft)
12.05.2014 05:05 9,3 C 7,8 C 87 % 1007,1 hPa 0,0 l/m 0 min 0 min 0,0 UV-I 0 W/m 12,9 km/h (3 Bft)
12.05.2014 05:06 9,3 C 7,8 C 87 % 1007,1 hPa 0,0 l/m 0 min 0 min 0,0 UV-I 0 W/m 10,3 km/h (2 Bft)
12.05.2014 05:08 9,3 C 7,8 C 87 % 1007,1 hPa 0,0 l/m 0 min 0 min 0,0 UV-I 0 W/m 20,6 km/h (4 Bft)
12.05.2014 05:10 9,3 C 7,8 C 87 % 1007,1 hPa 0,0 l/m 0 min 0 min 0,0 UV-I 0 W/m 20,6 km/h (4 Bft)
12.05.2014 05:12 9,3 C 7,8 C 87 % 1007,1 hPa 0,0 l/m 0 min 0 min 0,0 UV-I 0 W/m 18,0 km/h (3 Bft)
12.05.2014 05:14 9,3 C 7,8 C 87 % 1007,0 hPa 0,0 l/m 0 min 0 min 0,0 UV-I 0 W/m 15,4 km/h (3 Bft)
12.05.2014 05:16 9,3 C 7,8 C 87 % 1007,2 hPa 0,0 l/m 0 min 0 min 0,0 UV-I 0 W/m 20,6 km/h (4 Bft)
12.05.2014 05:18 9,3 C 7,8 C 87 % 1007,1 hPa 0,0 l/m 0 min 0 min 0,0 UV-I 0 W/m 10,3 km/h (2 Bft)
12.05.2014 05:20 9,4 C 7,8 C 87 % 1007,1 hPa 0,0 l/m 0 min 0 min 0,0 UV-I 0 W/m 18,0 km/h (3 Bft)
12.05.2014 05:22 9,4 C 7,8 C 87 % 1007,1 hPa 0,0 l/m 0 min 0 min 0,0 UV-I 0 W/m 10,3 km/h (2 Bft)
12.05.2014 05:24 9,3 C 7,8 C 87 % 1007,1 hPa 0,0 l/m 0 min 0 min 0,0 UV-I 0 W/m 7,7 km/h (2 Bft)
12.05.2014 05:26 9,3 C 7,8 C 87 % 1007,3 hPa 0,0 l/m 0 min 0 min 0,0 UV-I 0 W/m 15,4 km/h (3 Bft)
12.05.2014 05:28 9,3 C 7,8 C 87 % 1007,2 hPa 0,0 l/m 0 min 0 min 0,0 UV-I 0 W/m 5,1 km/h (1 Bft)
12.05.2014 05:30 9,3 C 7,8 C 87 % 1007,2 hPa 0,0 l/m 0 min 0 min 0,0 UV-I 0 W/m 23,2 km/h (4 Bft)
12.05.2014 05:32 9,3 C 7,8 C 87 % 1007,2 hPa 0,0 l/m 0 min 0 min 0,0 UV-I 0 W/m 10,3 km/h (2 Bft)
12.05.2014 05:34 9,3 C 7,8 C 87 % 1007,2 hPa 0,0 l/m 0 min 0 min 0,0 UV-I 0 W/m 30,9 km/h (5 Bft)
12.05.2014 05:36 9,3 C 7,8 C 87 % 1007,2 hPa 0,0 l/m 0 min 0 min 0,0 UV-I 0 W/m 12,9 km/h (3 Bft)
12.05.2014 05:38 9,3 C 7,8 C 87 % 1007,4 hPa 0,0 l/m 0 min 0 min 0,0 UV-I 0 W/m 15,4 km/h (3 Bft)
12.05.2014 05:40 9,3 C 7,8 C 87 % 1007,2 hPa 0,0 l/m 0 min 0 min 0,0 UV-I 0 W/m 18,0 km/h (3 Bft)
12.05.2014 05:42 9,3 C 7,8 C 87 % 1007,2 hPa 0,0 l/m 0 min 0 min 0,0 UV-I 0 W/m 12,9 km/h (3 Bft)
12.05.2014 05:44 9,3 C 7,8 C 87 % 1007,2 hPa 0,0 l/m 0 min 0 min 0,0 UV-I 0 W/m 28,3 km/h (4 Bft)
12.05.2014 05:46 9,3 C 7,8 C 87 % 1007,2 hPa 0,0 l/m 0 min 0 min 0,0 UV-I 0 W/m 15,4 km/h (3 Bft)
12.05.2014 05:48 9,3 C 7,8 C 87 % 1007,2 hPa 0,0 l/m 0 min 0 min 0,0 UV-I 0 W/m 15,4 km/h (3 Bft)
12.05.2014 05:50 9,3 C 7,8 C 87 % 1007,2 hPa 0,0 l/m 0 min 0 min 0,0 UV-I 0 W/m 23,2 km/h (4 Bft)
12.05.2014 05:52 9,2 C 7,8 C 87 % 1007,2 hPa 0,0 l/m 0 min 0 min 0,0 UV-I 0 W/m 12,9 km/h (3 Bft)
12.05.2014 05:54 9,3 C 7,8 C 87 % 1007,2 hPa 0,0 l/m 0 min 0 min 0,0 UV-I 0 W/m 10,3 km/h (2 Bft)
12.05.2014 05:56 9,3 C 7,8 C 87 % 1007,2 hPa 0,0 l/m 0 min 0 min 0,0 UV-I 0 W/m 7,7 km/h (2 Bft)
12.05.2014 05:58 9,2 C 7,8 C 87 % 1007,2 hPa 0,0 l/m 0 min 0 min 0,0 UV-I 5 W/m 10,3 km/h (2 Bft)
12.05.2014 06:00 9,2 C 7,8 C 87 % 1007,3 hPa 0,0 l/m 0 min 0 min 0,0 UV-I 5 W/m 28,3 km/h (4 Bft)
12.05.2014 06:02 9,2 C 7,8 C 87 % 1007,3 hPa 0,0 l/m 0 min 0 min 0,0 UV-I 5 W/m 25,7 km/h (4 Bft)
12.05.2014 06:06 9,2 C 7,8 C 87 % 1007,5 hPa 0,0 l/m 0 min 0 min 0,0 UV-I 7 W/m 15,4 km/h (3 Bft)
12.05.2014 06:08 9,2 C 7,8 C 87 % 1007,5 hPa 0,0 l/m 0 min 0 min 0,0 UV-I 9 W/m 12,9 km/h (3 Bft)
12.05.2014 06:10 9,2 C 7,8 C 87 % 1007,4 hPa 0,0 l/m 0 min 0 min 0,0 UV-I 9 W/m 7,7 km/h (2 Bft)
12.05.2014 06:12 9,1 C 7,8 C 87 % 1007,5 hPa 0,0 l/m 0 min 0 min 0,0 UV-I 11 W/m 15,4 km/h (3 Bft)
12.05.2014 06:14 9,1 C 7,8 C 87 % 1007,5 hPa 0,0 l/m 0 min 0 min 0,0 UV-I 11 W/m 12,9 km/h (3 Bft)
12.05.2014 06:16 9,1 C 7,8 C 87 % 1007,5 hPa 0,0 l/m 0 min 0 min 0,0 UV-I 12 W/m 12,9 km/h (3 Bft)
12.05.2014 06:18 9,1 C 7,8 C 87 % 1007,5 hPa 0,0 l/m 0 min 0 min 0,0 UV-I 12 W/m 10,3 km/h (2 Bft)
12.05.2014 06:20 9,1 C 7,8 C 87 % 1007,5 hPa 0,0 l/m 0 min 0 min 0,0 UV-I 14 W/m 12,9 km/h (3 Bft)
12.05.2014 06:22 9,1 C 7,8 C 87 % 1007,5 hPa 0,0 l/m 0 min 0 min 0,0 UV-I 14 W/m 18,0 km/h (3 Bft)
12.05.2014 06:24 9,1 C 7,8 C 87 % 1007,5 hPa 0,0 l/m 0 min 0 min 0,0 UV-I 14 W/m 15,4 km/h (3 Bft)
12.05.2014 06:26 9,1 C 7,8 C 87 % 1007,5 hPa 0,0 l/m 0 min 0 min 0,0 UV-I 14 W/m 10,3 km/h (2 Bft)
12.05.2014 06:28 9,0 C 7,8 C 87 % 1007,6 hPa 0,0 l/m 0 min 0 min 0,0 UV-I 14 W/m 23,2 km/h (4 Bft)
12.05.2014 06:30 9,0 C 7,8 C 87 % 1007,6 hPa 0,0 l/m 0 min 0 min 0,0 UV-I 14 W/m 18,0 km/h (3 Bft)
12.05.2014 06:32 9,0 C 7,8 C 87 % 1007,5 hPa 0,0 l/m 0 min 0 min 0,0 UV-I 16 W/m 38,6 km/h (5 Bft)
12.05.2014 06:34 9,0 C 7,8 C 87 % 1007,6 hPa 0,0 l/m 0 min 0 min 0,0 UV-I 16 W/m 20,6 km/h (4 Bft)
12.05.2014 06:36 9,0 C 7,8 C 87 % 1007,7 hPa 0,0 l/m 0 min 0 min 0,0 UV-I 16 W/m 18,0 km/h (3 Bft)
12.05.2014 06:38 8,9 C 7,8 C 87 % 1007,7 hPa 0,0 l/m 0 min 0 min 0,0 UV-I 16 W/m 12,9 km/h (3 Bft)
12.05.2014 06:40 8,9 C 7,8 C 87 % 1007,7 hPa 0,0 l/m 0 min 0 min 0,0 UV-I 18 W/m 12,9 km/h (3 Bft)
12.05.2014 06:42 9,0 C 7,8 C 87 % 1007,7 hPa 0,0 l/m 0 min 0 min 0,0 UV-I 19 W/m 18,0 km/h (3 Bft)
12.05.2014 06:44 8,9 C 7,8 C 87 % 1007,7 hPa 0,0 l/m 0 min 0 min 0,0 UV-I 21 W/m 15,4 km/h (3 Bft)
12.05.2014 06:46 8,9 C 7,8 C 87 % 1007,7 hPa 0,0 l/m 0 min 0 min 0,0 UV-I 19 W/m 18,0 km/h (3 Bft)
12.05.2014 06:48 8,9 C 7,8 C 87 % 1007,8 hPa 0,0 l/m 0 min 0 min 0,0 UV-I 19 W/m 20,6 km/h (4 Bft)
12.05.2014 06:50 8,9 C 7,8 C 87 % 1007,8 hPa 0,0 l/m 0 min 0 min 0,0 UV-I 19 W/m 18,0 km/h (3 Bft)
12.05.2014 06:52 8,9 C 7,8 C 87 % 1007,9 hPa 0,0 l/m 0 min 0 min 0,0 UV-I 18 W/m 15,4 km/h (3 Bft)
12.05.2014 06:54 8,9 C 7,8 C 87 % 1007,8 hPa 0,0 l/m 0 min 0 min 0,0 UV-I 18 W/m 12,9 km/h (3 Bft)
12.05.2014 06:56 8,9 C 7,8 C 87 % 1007,9 hPa 0,0 l/m 0 min 0 min 0,0 UV-I 16 W/m 18,0 km/h (3 Bft)
12.05.2014 06:58 8,9 C 7,8 C 87 % 1007,8 hPa 0,0 l/m 0 min 0 min 0,0 UV-I 19 W/m 18,0 km/h (3 Bft)
12.05.2014 07:00 8,9 C 7,8 C 87 % 1007,8 hPa 0,0 l/m 0 min 0 min 0,0 UV-I 23 W/m 7,7 km/h (2 Bft)
12.05.2014 07:02 8,9 C 7,8 C 87 % 1007,9 hPa 0,0 l/m 0 min 0 min 0,0 UV-I 25 W/m 10,3 km/h (2 Bft)
12.05.2014 07:06 8,9 C 7,8 C 87 % 1008,0 hPa 0,0 l/m 0 min 0 min 0,0 UV-I 30 W/m 23,2 km/h (4 Bft)
12.05.2014 07:08 8,9 C 7,8 C 87 % 1007,9 hPa 0,0 l/m 0 min 0 min 0,0 UV-I 32 W/m 7,7 km/h (2 Bft)
12.05.2014 07:10 8,9 C 7,8 C 87 % 1008,0 hPa 0,0 l/m 0 min 0 min 0,0 UV-I 35 W/m 12,9 km/h (3 Bft)
12.05.2014 07:12 8,9 C 7,8 C 87 % 1008,0 hPa 0,0 l/m 0 min 0 min 0,0 UV-I 37 W/m 20,6 km/h (4 Bft)
12.05.2014 07:14 8,9 C 7,8 C 87 % 1008,0 hPa 0,0 l/m 0 min 0 min 0,0 UV-I 32 W/m 10,3 km/h (2 Bft)
12.05.2014 07:16 8,9 C 7,8 C 87 % 1008,0 hPa 0,0 l/m 0 min 0 min 0,0 UV-I 30 W/m 12,9 km/h (3 Bft)
12.05.2014 07:18 8,9 C 7,8 C 87 % 1008,1 hPa 0,0 l/m 0 min 0 min 0,0 UV-I 32 W/m 18,0 km/h (3 Bft)
12.05.2014 07:20 8,9 C 7,8 C 87 % 1008,0 hPa 0,0 l/m 0 min 0 min 0,0 UV-I 30 W/m 12,9 km/h (3 Bft)
12.05.2014 07:22 8,9 C 7,8 C 87 % 1008,1 hPa 0,0 l/m 0 min 0 min 0,0 UV-I 32 W/m 12,9 km/h (3 Bft)
12.05.2014 07:24 8,9 C 7,8 C 87 % 1008,1 hPa 0,0 l/m 0 min 0 min 0,0 UV-I 32 W/m 15,4 km/h (3 Bft)
12.05.2014 07:26 8,9 C 7,8 C 87 % 1008,2 hPa 0,0 l/m 0 min 0 min 0,0 UV-I 32 W/m 15,4 km/h (3 Bft)
12.05.2014 07:28 8,9 C 7,8 C 87 % 1008,2 hPa 0,0 l/m 0 min 0 min 0,0 UV-I 39 W/m 18,0 km/h (3 Bft)
12.05.2014 07:30 8,9 C 7,8 C 87 % 1008,2 hPa 0,0 l/m 0 min 0 min 0,0 UV-I 28 W/m 10,3 km/h (2 Bft)
12.05.2014 07:32 8,9 C 7,8 C 87 % 1008,3 hPa 0,0 l/m 0 min 0 min 0,0 UV-I 39 W/m 20,6 km/h (4 Bft)
12.05.2014 07:34 8,9 C 7,8 C 87 % 1008,3 hPa 0,0 l/m 0 min 0 min 0,0 UV-I 32 W/m 12,9 km/h (3 Bft)
12.05.2014 07:36 8,9 C 7,8 C 87 % 1008,3 hPa 0,0 l/m 0 min 0 min 0,0 UV-I 28 W/m 7,7 km/h (2 Bft)
12.05.2014 07:38 8,9 C 7,8 C 88 % 1008,3 hPa 0,0 l/m 0 min 0 min 0,0 UV-I 30 W/m 20,6 km/h (4 Bft)
12.05.2014 07:40 8,9 C 7,8 C 88 % 1008,3 hPa 0,0 l/m 0 min 0 min 0,0 UV-I 37 W/m 12,9 km/h (3 Bft)
12.05.2014 07:42 8,9 C 7,8 C 88 % 1008,4 hPa 0,0 l/m 0 min 0 min 0,0 UV-I 69 W/m 18,0 km/h (3 Bft)
12.05.2014 07:44 8,9 C 8,3 C 88 % 1008,3 hPa 0,0 l/m 0 min 0 min 0,0 UV-I 81 W/m 18,0 km/h (3 Bft)
12.05.2014 07:46 9,0 C 8,3 C 88 % 1008,3 hPa 0,0 l/m 0 min 0 min 0,0 UV-I 70 W/m 15,4 km/h (3 Bft)
12.05.2014 07:48 9,0 C 8,3 C 88 % 1008,4 hPa 0,0 l/m 0 min 0 min 0,0 UV-I 58 W/m 7,7 km/h (2 Bft)
12.05.2014 07:50 9,1 C 8,3 C 88 % 1008,4 hPa 0,0 l/m 0 min 0 min 0,0 UV-I 51 W/m 7,7 km/h (2 Bft)
12.05.2014 07:52 9,1 C 8,3 C 88 % 1008,3 hPa 0,0 l/m 0 min 0 min 0,0 UV-I 47 W/m 18,0 km/h (3 Bft)
12.05.2014 07:54 9,1 C 8,3 C 87 % 1008,4 hPa 0,0 l/m 0 min 0 min 0,0 UV-I 53 W/m 18,0 km/h (3 Bft)
12.05.2014 07:56 9,1 C 8,3 C 88 % 1008,4 hPa 0,0 l/m 0 min 0 min 0,0 UV-I 54 W/m 2,6 km/h (1 Bft)
12.05.2014 07:58 9,1 C 8,3 C 88 % 1008,4 hPa 0,0 l/m 0 min 0 min 0,0 UV-I 72 W/m 2,6 km/h (1 Bft)
12.05.2014 08:00 9,1 C 8,3 C 88 % 1008,4 hPa 0,0 l/m 0 min 0 min 0,0 UV-I 77 W/m 15,4 km/h (3 Bft)
12.05.2014 08:02 9,2 C 8,3 C 88 % 1008,4 hPa 0,0 l/m 0 min 0 min 0,0 UV-I 84 W/m 15,4 km/h (3 Bft)
12.05.2014 08:06 9,2 C 8,3 C 87 % 1008,4 hPa 0,0 l/m 0 min 0 min 0,0 UV-I 98 W/m 10,3 km/h (2 Bft)
12.05.2014 08:08 9,3 C 8,3 C 87 % 1008,4 hPa 0,0 l/m 0 min 0 min 0,0 UV-I 86 W/m 10,3 km/h (2 Bft)
12.05.2014 08:10 9,3 C 8,3 C 87 % 1008,5 hPa 0,0 l/m 0 min 0 min 0,0 UV-I 83 W/m 20,6 km/h (4 Bft)
12.05.2014 08:12 9,3 C 8,3 C 87 % 1008,5 hPa 0,0 l/m 0 min 0 min 0,0 UV-I 86 W/m 12,9 km/h (3 Bft)
12.05.2014 08:14 9,3 C 8,3 C 87 % 1008,4 hPa 0,0 l/m 0 min 0 min 0,0 UV-I 72 W/m 18,0 km/h (3 Bft)
12.05.2014 08:16 9,3 C 8,3 C 87 % 1008,5 hPa 0,0 l/m 0 min 0 min 0,0 UV-I 81 W/m 12,9 km/h (3 Bft)
12.05.2014 08:18 9,4 C 8,9 C 87 % 1008,5 hPa 0,0 l/m 0 min 0 min 0,0 UV-I 90 W/m 12,9 km/h (3 Bft)
12.05.2014 08:20 9,4 C 8,9 C 87 % 1008,5 hPa 0,0 l/m 0 min 0 min 0,0 UV-I 104 W/m 12,9 km/h (3 Bft)
12.05.2014 08:22 9,4 C 8,9 C 87 % 1008,5 hPa 0,0 l/m 0 min 0 min 0,0 UV-I 104 W/m 7,7 km/h (2 Bft)
12.05.2014 08:24 9,4 C 8,9 C 87 % 1008,5 hPa 0,0 l/m 0 min 0 min 0,0 UV-I 76 W/m 7,7 km/h (2 Bft)
12.05.2014 08:26 9,4 C 8,9 C 87 % 1008,6 hPa 0,0 l/m 0 min 0 min 0,0 UV-I 98 W/m 12,9 km/h (3 Bft)
12.05.2014 08:28 9,4 C 8,9 C 87 % 1008,6 hPa 0,0 l/m 0 min 0 min 0,0 UV-I 102 W/m 25,7 km/h (4 Bft)
12.05.2014 08:30 9,4 C 8,9 C 87 % 1008,6 hPa 0,0 l/m 0 min 0 min 0,0 UV-I 91 W/m 10,3 km/h (2 Bft)
12.05.2014 08:32 9,5 C 8,9 C 87 % 1008,6 hPa 0,0 l/m 0 min 0 min 0,0 UV-I 118 W/m 10,3 km/h (2 Bft)
12.05.2014 08:34 9,5 C 8,9 C 87 % 1008,6 hPa 0,0 l/m 0 min 0 min 0,0 UV-I 128 W/m 12,9 km/h (3 Bft)
12.05.2014 08:36 9,5 C 8,9 C 87 % 1008,6 hPa 0,0 l/m 0 min 0 min 0,0 UV-I 130 W/m 18,0 km/h (3 Bft)
12.05.2014 08:38 9,6 C 8,9 C 87 % 1008,6 hPa 0,0 l/m 0 min 0 min 0,0 UV-I 114 W/m 10,3 km/h (2 Bft)
12.05.2014 08:40 9,6 C 8,9 C 87 % 1008,6 hPa 0,0 l/m 0 min 0 min 0,0 UV-I 130 W/m 20,6 km/h (4 Bft)
12.05.2014 08:42 9,6 C 8,9 C 87 % 1008,6 hPa 0,0 l/m 0 min 0 min 0,0 UV-I 130 W/m 5,1 km/h (1 Bft)
12.05.2014 08:44 9,6 C 8,9 C 87 % 1008,6 hPa 0,0 l/m 0 min 0 min 0,0 UV-I 120 W/m 10,3 km/h (2 Bft)
12.05.2014 08:46 9,7 C 8,9 C 87 % 1008,6 hPa 0,0 l/m 0 min 0 min 0,0 UV-I 128 W/m 7,7 km/h (2 Bft)
12.05.2014 08:48 9,7 C 8,9 C 87 % 1008,6 hPa 0,0 l/m 0 min 0 min 0,0 UV-I 135 W/m 23,2 km/h (4 Bft)
12.05.2014 08:50 9,7 C 9,4 C 87 % 1008,6 hPa 0,0 l/m 0 min 0 min 0,0 UV-I 135 W/m 7,7 km/h (2 Bft)
12.05.2014 08:52 9,7 C 9,4 C 87 % 1008,6 hPa 0,0 l/m 0 min 0 min 0,0 UV-I 176 W/m 20,6 km/h (4 Bft)
12.05.2014 08:54 9,7 C 9,4 C 87 % 1008,6 hPa 0,0 l/m 0 min 0 min 0,0 UV-I 220 W/m 15,4 km/h (3 Bft)
12.05.2014 08:56 9,8 C 9,4 C 86 % 1008,6 hPa 0,0 l/m 0 min 0 min 0,0 UV-I 218 W/m 7,7 km/h (2 Bft)
12.05.2014 08:58 9,9 C 9,4 C 87 % 1008,7 hPa 0,0 l/m 0 min 0 min 0,0 UV-I 178 W/m 20,6 km/h (4 Bft)
12.05.2014 09:00 10,0 C 9,4 C 87 % 1008,6 hPa 0,0 l/m 0 min 0 min 0,0 UV-I 160 W/m 0,0 km/h (0 Bft)
12.05.2014 09:02 10,0 C 9,4 C 86 % 1008,7 hPa 0,0 l/m 0 min 0 min 0,0 UV-I 192 W/m 2,6 km/h (1 Bft)
12.05.2014 09:05 10,1 C 10,0 C 86 % 1008,8 hPa 0,0 l/m 0 min 0 min 0,0 UV-I 207 W/m 20,6 km/h (4 Bft)
12.05.2014 09:06 10,2 C 10,0 C 86 % 1008,8 hPa 0,0 l/m 0 min 0 min 0,0 UV-I 190 W/m 7,7 km/h (2 Bft)
12.05.2014 09:08 10,2 C 10,0 C 86 % 1008,7 hPa 0,0 l/m 0 min 0 min 0,0 UV-I 202 W/m 10,3 km/h (2 Bft)
12.05.2014 09:10 10,2 C 10,0 C 86 % 1008,7 hPa 0,0 l/m 0 min 0 min 0,0 UV-I 202 W/m 10,3 km/h (2 Bft)
12.05.2014 09:12 10,2 C 10,0 C 86 % 1008,7 hPa 0,0 l/m 0 min 0 min 0,0 UV-I 206 W/m 12,9 km/h (3 Bft)
12.05.2014 09:14 10,3 C 10,0 C 86 % 1008,8 hPa 0,0 l/m 0 min 0 min 0,0 UV-I 207 W/m 5,1 km/h (1 Bft)
12.05.2014 09:16 10,3 C 10,0 C 85 % 1008,8 hPa 0,0 l/m 0 min 0 min 0,0 UV-I 216 W/m 23,2 km/h (4 Bft)
12.05.2014 09:18 10,3 C 10,0 C 85 % 1008,8 hPa 0,0 l/m 0 min 0 min 0,0 UV-I 223 W/m 12,9 km/h (3 Bft)
12.05.2014 09:20 10,4 C 10,0 C 86 % 1008,7 hPa 0,0 l/m 0 min 0 min 0,0 UV-I 216 W/m 10,3 km/h (2 Bft)
12.05.2014 09:22 10,4 C 10,0 C 85 % 1008,7 hPa 0,0 l/m 0 min 0 min 0,0 UV-I 190 W/m 15,4 km/h (3 Bft)
12.05.2014 09:24 10,4 C 10,0 C 85 % 1008,8 hPa 0,0 l/m 0 min 0 min 0,0 UV-I 251 W/m 5,1 km/h (1 Bft)
12.05.2014 09:26 10,6 C 10,6 C 85 % 1008,7 hPa 0,0 l/m 0 min 0 min 0,0 UV-I 230 W/m 10,3 km/h (2 Bft)
12.05.2014 09:28 10,6 C 10,0 C 85 % 1008,8 hPa 0,0 l/m 0 min 0 min 0,0 UV-I 234 W/m 30,9 km/h (5 Bft)
12.05.2014 09:30 10,6 C 10,0 C 85 % 1008,7 hPa 0,0 l/m 0 min 0 min 0,0 UV-I 192 W/m 12,9 km/h (3 Bft)
12.05.2014 09:32 10,6 C 10,6 C 85 % 1008,8 hPa 0,0 l/m 0 min 0 min 0,0 UV-I 278 W/m 20,6 km/h (4 Bft)
12.05.2014 09:34 10,6 C 10,6 C 85 % 1008,8 hPa 0,0 l/m 0 min 0 min 0,0 UV-I 295 W/m 20,6 km/h (4 Bft)
12.05.2014 09:36 10,7 C 10,6 C 84 % 1008,9 hPa 0,0 l/m 2 min 0 min 0,0 UV-I 309 W/m 10,3 km/h (2 Bft)
12.05.2014 09:38 10,7 C 10,6 C 84 % 1008,9 hPa 0,0 l/m 2 min 0 min 0,0 UV-I 332 W/m 15,4 km/h (3 Bft)
12.05.2014 09:40 10,8 C 11,1 C 85 % 1008,8 hPa 0,0 l/m 0 min 0 min 0,0 UV-I 299 W/m 2,6 km/h (1 Bft)
12.05.2014 09:42 10,9 C 11,1 C 84 % 1008,9 hPa 0,0 l/m 0 min 0 min 0,0 UV-I 287 W/m 5,1 km/h (1 Bft)
12.05.2014 09:44 10,9 C 11,1 C 84 % 1008,8 hPa 0,0 l/m 0 min 0 min 0,0 UV-I 276 W/m 15,4 km/h (3 Bft)
12.05.2014 09:46 10,9 C 11,1 C 84 % 1008,9 hPa 0,0 l/m 0 min 0 min 0,0 UV-I 283 W/m 10,3 km/h (2 Bft)
12.05.2014 09:48 11,0 C 11,1 C 84 % 1008,8 hPa 0,0 l/m 0 min 0 min 0,0 UV-I 227 W/m 10,3 km/h (2 Bft)
12.05.2014 09:50 11,0 C 11,1 C 84 % 1008,8 hPa 0,0 l/m 0 min 0 min 0,0 UV-I 207 W/m 18,0 km/h (3 Bft)
12.05.2014 09:52 10,9 C 10,6 C 83 % 1008,9 hPa 0,0 l/m 0 min 0 min 0,0 UV-I 237 W/m 12,9 km/h (3 Bft)
12.05.2014 09:54 10,9 C 10,6 C 83 % 1008,9 hPa 0,0 l/m 0 min 0 min 0,0 UV-I 137 W/m 15,4 km/h (3 Bft)
12.05.2014 09:56 10,9 C 10,6 C 84 % 1008,9 hPa 0,0 l/m 0 min 0 min 0,0 UV-I 178 W/m 20,6 km/h (4 Bft)
12.05.2014 09:58 10,9 C 10,6 C 83 % 1008,9 hPa 0,0 l/m 0 min 0 min 0,0 UV-I 200 W/m 12,9 km/h (3 Bft)
12.05.2014 10:00 10,9 C 10,6 C 84 % 1008,9 hPa 0,0 l/m 0 min 0 min 0,0 UV-I 193 W/m 2,6 km/h (1 Bft)
12.05.2014 10:02 10,9 C 10,6 C 84 % 1008,9 hPa 0,0 l/m 0 min 0 min 0,0 UV-I 218 W/m 7,7 km/h (2 Bft)
12.05.2014 10:05 11,0 C 10,6 C 84 % 1009,0 hPa 0,0 l/m 0 min 0 min 0,0 UV-I 218 W/m 15,4 km/h (3 Bft)
12.05.2014 10:06 11,0 C 10,6 C 84 % 1009,0 hPa 0,0 l/m 0 min 0 min 0,0 UV-I 255 W/m 20,6 km/h (4 Bft)
12.05.2014 10:08 11,0 C 10,6 C 83 % 1008,9 hPa 0,0 l/m 0 min 0 min 0,0 UV-I 278 W/m 15,4 km/h (3 Bft)
12.05.2014 10:10 11,1 C 11,1 C 83 % 1008,9 hPa 0,0 l/m 0 min 0 min 0,5 UV-I 338 W/m 25,7 km/h (4 Bft)
12.05.2014 10:12 11,2 C 11,7 C 84 % 1008,9 hPa 0,0 l/m 0 min 0 min 0,5 UV-I 329 W/m 2,6 km/h (1 Bft)
12.05.2014 10:14 11,3 C 11,7 C 84 % 1009,0 hPa 0,0 l/m 2 min 0 min 0,9 UV-I 394 W/m 15,4 km/h (3 Bft)
12.05.2014 10:16 11,4 C 11,7 C 83 % 1008,9 hPa 0,0 l/m 2 min 0 min 0,8 UV-I 401 W/m 10,3 km/h (2 Bft)
12.05.2014 10:18 11,6 C 11,7 C 83 % 1008,9 hPa 0,0 l/m 0 min 0 min 0,7 UV-I 339 W/m 12,9 km/h (3 Bft)
12.05.2014 10:20 11,7 C 11,7 C 83 % 1009,0 hPa 0,0 l/m 0 min 0 min 0,7 UV-I 315 W/m 10,3 km/h (2 Bft)
12.05.2014 10:22 11,8 C 11,7 C 82 % 1009,0 hPa 0,0 l/m 0 min 0 min 0,8 UV-I 334 W/m 10,3 km/h (2 Bft)
12.05.2014 10:24 11,8 C 12,2 C 82 % 1008,9 hPa 0,0 l/m 2 min 0 min 0,9 UV-I 366 W/m 15,4 km/h (3 Bft)
12.05.2014 10:26 11,9 C 11,7 C 82 % 1008,9 hPa 0,0 l/m 0 min 0 min 0,8 UV-I 309 W/m 28,3 km/h (4 Bft)
12.05.2014 10:28 11,8 C 11,7 C 81 % 1009,0 hPa 0,0 l/m 0 min 0 min 0,8 UV-I 339 W/m 25,7 km/h (4 Bft)
12.05.2014 10:30 11,8 C 11,7 C 81 % 1009,0 hPa 0,0 l/m 0 min 0 min 0,7 UV-I 294 W/m 23,2 km/h (4 Bft)
12.05.2014 10:32 11,7 C 11,7 C 80 % 1008,9 hPa 0,0 l/m 0 min 0 min 0,6 UV-I 295 W/m 18,0 km/h (3 Bft)
12.05.2014 10:34 11,7 C 11,7 C 80 % 1008,9 hPa 0,0 l/m 0 min 0 min 0,8 UV-I 345 W/m 23,2 km/h (4 Bft)
12.05.2014 10:36 11,7 C 11,7 C 80 % 1008,8 hPa 0,0 l/m 0 min 0 min 0,8 UV-I 278 W/m 20,6 km/h (4 Bft)
12.05.2014 10:38 11,8 C 12,8 C 80 % 1008,9 hPa 0,0 l/m 0 min 0 min 2,3 UV-I 278 W/m 20,6 km/h (4 Bft)
12.05.2014 10:40 12,1 C 13,3 C 82 % 1008,9 hPa 0,0 l/m 0 min 0 min 1,5 UV-I 278 W/m 15,4 km/h (3 Bft)
12.05.2014 10:42 12,3 C 12,8 C 81 % 1008,8 hPa 0,0 l/m 2 min 0 min 1,1 UV-I 383 W/m 15,4 km/h (3 Bft)
12.05.2014 10:44 12,4 C 12,8 C 81 % 1008,9 hPa 0,0 l/m 2 min 0 min 1,4 UV-I 575 W/m 20,6 km/h (4 Bft)
12.05.2014 10:46 12,4 C 12,8 C 79 % 1008,8 hPa 0,0 l/m 0 min 0 min 0,9 UV-I 362 W/m 15,4 km/h (3 Bft)
12.05.2014 10:48 12,3 C 12,2 C 78 % 1008,9 hPa 0,0 l/m 0 min 0 min 0,8 UV-I 308 W/m 18,0 km/h (3 Bft)
12.05.2014 10:50 12,2 C 12,2 C 78 % 1008,8 hPa 0,0 l/m 0 min 0 min 0,7 UV-I 285 W/m 20,6 km/h (4 Bft)
12.05.2014 10:52 12,1 C 12,2 C 78 % 1008,8 hPa 0,0 l/m 0 min 0 min 1,1 UV-I 352 W/m 18,0 km/h (3 Bft)
12.05.2014 10:54 12,1 C 12,2 C 78 % 1008,8 hPa 0,0 l/m 0 min 0 min 1,0 UV-I 374 W/m 10,3 km/h (2 Bft)
12.05.2014 10:56 12,1 C 12,2 C 79 % 1008,9 hPa 0,0 l/m 0 min 0 min 0,0 UV-I 369 W/m 25,7 km/h (4 Bft)
12.05.2014 10:58 12,1 C 11,7 C 78 % 1008,8 hPa 0,0 l/m 0 min 0 min 0,0 UV-I 172 W/m 20,6 km/h (4 Bft)
12.05.2014 11:00 12,0 C 11,7 C 78 % 1008,9 hPa 0,0 l/m 0 min 0 min 0,0 UV-I 176 W/m 20,6 km/h (4 Bft)
12.05.2014 11:02 11,9 C 11,1 C 78 % 1008,8 hPa 0,0 l/m 0 min 0 min 0,0 UV-I 165 W/m 12,9 km/h (3 Bft)
12.05.2014 11:05 11,8 C 11,1 C 79 % 1008,9 hPa 0,0 l/m 0 min 0 min 0,0 UV-I 165 W/m 23,2 km/h (4 Bft)
12.05.2014 11:06 11,8 C 11,1 C 79 % 1008,9 hPa 0,0 l/m 0 min 0 min 0,0 UV-I 165 W/m 15,4 km/h (3 Bft)
12.05.2014 11:08 11,7 C 11,1 C 80 % 1008,8 hPa 0,0 l/m 0 min 0 min 0,0 UV-I 148 W/m 12,9 km/h (3 Bft)
12.05.2014 11:10 11,7 C 11,1 C 79 % 1008,9 hPa 0,0 l/m 0 min 0 min 0,0 UV-I 176 W/m 18,0 km/h (3 Bft)
12.05.2014 11:12 11,7 C 11,1 C 80 % 1008,9 hPa 0,0 l/m 0 min 0 min 0,0 UV-I 209 W/m 12,9 km/h (3 Bft)
12.05.2014 11:14 11,8 C 11,7 C 80 % 1008,9 hPa 0,0 l/m 0 min 0 min 0,6 UV-I 278 W/m 7,7 km/h (2 Bft)
12.05.2014 11:16 11,9 C 11,7 C 80 % 1008,9 hPa 0,0 l/m 0 min 0 min 0,6 UV-I 243 W/m 7,7 km/h (2 Bft)
12.05.2014 11:18 12,0 C 11,7 C 79 % 1008,9 hPa 0,0 l/m 0 min 0 min 0,9 UV-I 339 W/m 15,4 km/h (3 Bft)
12.05.2014 11:20 12,2 C 12,2 C 80 % 1008,9 hPa 0,0 l/m 0 min 0 min 1,2 UV-I 390 W/m 7,7 km/h (2 Bft)
12.05.2014 11:22 12,3 C 12,2 C 79 % 1008,9 hPa 0,0 l/m 2 min 0 min 1,3 UV-I 415 W/m 25,7 km/h (4 Bft)
12.05.2014 11:24 12,3 C 12,2 C 78 % 1008,9 hPa 0,0 l/m 0 min 0 min 1,2 UV-I 401 W/m 30,9 km/h (5 Bft)
12.05.2014 11:26 12,3 C 12,2 C 78 % 1008,9 hPa 0,0 l/m 0 min 0 min 0,9 UV-I 345 W/m 20,6 km/h (4 Bft)
12.05.2014 11:28 12,3 C 12,2 C 78 % 1008,9 hPa 0,0 l/m 0 min 0 min 0,9 UV-I 329 W/m 20,6 km/h (4 Bft)
12.05.2014 11:30 12,2 C 12,2 C 77 % 1008,9 hPa 0,0 l/m 0 min 0 min 1,2 UV-I 366 W/m 20,6 km/h (4 Bft)
12.05.2014 11:32 12,2 C 12,2 C 78 % 1008,9 hPa 0,0 l/m 0 min 0 min 1,2 UV-I 369 W/m 28,3 km/h (4 Bft)
12.05.2014 11:34 12,2 C 12,2 C 78 % 1008,9 hPa 0,0 l/m 0 min 0 min 0,9 UV-I 311 W/m 20,6 km/h (4 Bft)
12.05.2014 11:36 12,3 C 12,2 C 78 % 1008,9 hPa 0,0 l/m 0 min 0 min 0,6 UV-I 274 W/m 12,9 km/h (3 Bft)
12.05.2014 11:38 12,2 C 12,2 C 78 % 1008,9 hPa 0,0 l/m 0 min 0 min 0,6 UV-I 265 W/m 15,4 km/h (3 Bft)
12.05.2014 11:40 12,2 C 12,2 C 78 % 1009,0 hPa 0,0 l/m 0 min 0 min 0,9 UV-I 401 W/m 25,7 km/h (4 Bft)
12.05.2014 11:42 12,3 C 12,2 C 79 % 1008,9 hPa 0,0 l/m 0 min 0 min 1,2 UV-I 401 W/m 30,9 km/h (5 Bft)
12.05.2014 11:44 12,4 C 12,2 C 79 % 1008,8 hPa 0,0 l/m 0 min 0 min 1,3 UV-I 374 W/m 28,3 km/h (4 Bft)
12.05.2014 11:46 12,4 C 12,2 C 78 % 1008,8 hPa 0,0 l/m 0 min 0 min 0,9 UV-I 338 W/m 15,4 km/h (3 Bft)
12.05.2014 11:48 12,5 C 12,8 C 78 % 1008,8 hPa 0,0 l/m 0 min 0 min 1,1 UV-I 357 W/m 7,7 km/h (2 Bft)
12.05.2014 11:50 12,7 C 12,8 C 79 % 1008,9 hPa 0,0 l/m 0 min 0 min 1,3 UV-I 359 W/m 18,0 km/h (3 Bft)
12.05.2014 11:52 12,7 C 12,8 C 77 % 1008,9 hPa 0,0 l/m 2 min 0 min 1,1 UV-I 439 W/m 28,3 km/h (4 Bft)
12.05.2014 11:54 12,7 C 12,8 C 77 % 1008,9 hPa 0,0 l/m 0 min 0 min 1,1 UV-I 364 W/m 25,7 km/h (4 Bft)
12.05.2014 11:56 12,7 C 12,8 C 77 % 1008,9 hPa 0,0 l/m 0 min 0 min 1,0 UV-I 283 W/m 10,3 km/h (2 Bft)
12.05.2014 11:58 12,7 C 12,2 C 77 % 1008,8 hPa 0,0 l/m 0 min 0 min 0,5 UV-I 227 W/m 20,6 km/h (4 Bft)
12.05.2014 12:00 12,6 C 12,2 C 77 % 1008,8 hPa 0,0 l/m 0 min 0 min 0,0 UV-I 197 W/m 12,9 km/h (3 Bft)
12.05.2014 12:02 12,5 C 12,2 C 77 % 1008,9 hPa 0,0 l/m 0 min 0 min 0,0 UV-I 171 W/m 18,0 km/h (3 Bft)
12.05.2014 12:05 12,4 C 11,7 C 78 % 1008,9 hPa 0,0 l/m 0 min 0 min 0,0 UV-I 125 W/m 18,0 km/h (3 Bft)
12.05.2014 12:06 12,3 C 11,7 C 78 % 1008,9 hPa 0,0 l/m 0 min 0 min 0,0 UV-I 118 W/m 0,0 km/h (0 Bft)
12.05.2014 12:08 12,2 C 11,7 C 79 % 1008,9 hPa 0,0 l/m 0 min 0 min 0,0 UV-I 90 W/m 15,4 km/h (3 Bft)
12.05.2014 12:10 12,1 C 11,1 C 79 % 1009,0 hPa 0,0 l/m 0 min 0 min 0,0 UV-I 104 W/m 28,3 km/h (4 Bft)
12.05.2014 12:12 11,9 C 10,6 C 80 % 1009,1 hPa 0,0 l/m 0 min 2 min 0,0 UV-I 109 W/m 18,0 km/h (3 Bft)
12.05.2014 12:14 11,8 C 10,6 C 80 % 1009,1 hPa 0,0 l/m 0 min 0 min 0,0 UV-I 105 W/m 12,9 km/h (3 Bft)
12.05.2014 12:16 11,7 C 10,6 C 80 % 1009,1 hPa 0,0 l/m 0 min 0 min 0,0 UV-I 97 W/m 12,9 km/h (3 Bft)
12.05.2014 12:18 11,7 C 10,6 C 81 % 1009,2 hPa 0,0 l/m 0 min 0 min 0,0 UV-I 97 W/m 10,3 km/h (2 Bft)
12.05.2014 12:20 11,6 C 10,6 C 81 % 1009,0 hPa 0,0 l/m 0 min 0 min 0,0 UV-I 107 W/m 10,3 km/h (2 Bft)
12.05.2014 12:22 11,6 C 10,6 C 81 % 1009,2 hPa 0,0 l/m 0 min 2 min 0,0 UV-I 123 W/m 15,4 km/h (3 Bft)
12.05.2014 12:24 11,6 C 10,6 C 82 % 1009,3 hPa 0,0 l/m 0 min 2 min 0,0 UV-I 199 W/m 18,0 km/h (3 Bft)
12.05.2014 12:26 11,4 C 10,0 C 84 % 1009,3 hPa 0,0 l/m 0 min 2 min 0,9 UV-I 359 W/m 18,0 km/h (3 Bft)
12.05.2014 12:28 11,4 C 10,6 C 85 % 1009,2 hPa 0,0 l/m 0 min 2 min 1,3 UV-I 404 W/m 10,3 km/h (2 Bft)
12.05.2014 12:30 11,4 C 10,6 C 85 % 1009,2 hPa 0,0 l/m 0 min 2 min 1,1 UV-I 339 W/m 10,3 km/h (2 Bft)
12.05.2014 12:32 11,6 C 11,1 C 86 % 1009,2 hPa 0,0 l/m 0 min 0 min 1,1 UV-I 316 W/m 10,3 km/h (2 Bft)
12.05.2014 12:34 11,6 C 11,1 C 86 % 1009,2 hPa 0,0 l/m 0 min 0 min 1,3 UV-I 320 W/m 18,0 km/h (3 Bft)
12.05.2014 12:36 11,7 C 11,1 C 85 % 1009,2 hPa 0,0 l/m 2 min 2 min 1,9 UV-I 466 W/m 15,4 km/h (3 Bft)
12.05.2014 12:38 11,9 C 12,2 C 86 % 1009,2 hPa 0,0 l/m 2 min 0 min 2,1 UV-I 557 W/m 12,9 km/h (3 Bft)
12.05.2014 12:40 12,2 C 12,8 C 85 % 1009,2 hPa 0,0 l/m 0 min 0 min 1,6 UV-I 434 W/m 15,4 km/h (3 Bft)
12.05.2014 12:42 12,4 C 12,8 C 84 % 1009,3 hPa 0,0 l/m 0 min 0 min 1,3 UV-I 373 W/m 20,6 km/h (4 Bft)
12.05.2014 12:44 12,6 C 12,8 C 83 % 1009,3 hPa 0,0 l/m 0 min 0 min 1,5 UV-I 390 W/m 15,4 km/h (3 Bft)
12.05.2014 12:46 12,6 C 12,2 C 81 % 1009,3 hPa 0,0 l/m 0 min 2 min 0,9 UV-I 297 W/m 28,3 km/h (4 Bft)
12.05.2014 12:48 12,4 C 12,2 C 80 % 1009,2 hPa 0,0 l/m 0 min 0 min 0,5 UV-I 229 W/m 18,0 km/h (3 Bft)
12.05.2014 12:50 12,3 C 11,7 C 80 % 1009,2 hPa 0,0 l/m 0 min 2 min 0,0 UV-I 227 W/m 20,6 km/h (4 Bft)
12.05.2014 12:52 12,2 C 11,7 C 80 % 1009,2 hPa 0,0 l/m 0 min 0 min 0,0 UV-I 195 W/m 25,7 km/h (4 Bft)
12.05.2014 12:54 12,2 C 11,7 C 81 % 1009,2 hPa 0,0 l/m 0 min 2 min 0,5 UV-I 234 W/m 18,0 km/h (3 Bft)
12.05.2014 12:56 12,2 C 11,7 C 81 % 1009,3 hPa 0,0 l/m 0 min 0 min 0,8 UV-I 271 W/m 20,6 km/h (4 Bft)
12.05.2014 12:58 12,1 C 11,7 C 81 % 1009,3 hPa 0,0 l/m 0 min 2 min 0,7 UV-I 274 W/m 20,6 km/h (4 Bft)
12.05.2014 13:00 12,2 C 11,7 C 81 % 1009,3 hPa 0,0 l/m 0 min 2 min 0,9 UV-I 255 W/m 10,3 km/h (2 Bft)
12.05.2014 13:02 12,2 C 12,2 C 80 % 1009,3 hPa 0,0 l/m 0 min 0 min 1,4 UV-I 315 W/m 30,9 km/h (5 Bft)
12.05.2014 13:05 12,7 C 13,3 C 80 % 1009,1 hPa 0,0 l/m 2 min 0 min 2,0 UV-I 984 W/m 23,2 km/h (4 Bft)
12.05.2014 13:06 12,9 C 13,3 C 81 % 1009,1 hPa 0,0 l/m 1 min 0 min 1,9 UV-I 1009 W/m 12,9 km/h (3 Bft)
12.05.2014 13:08 13,3 C 13,9 C 80 % 1009,2 hPa 0,0 l/m 2 min 0 min 1,7 UV-I 1025 W/m 15,4 km/h (3 Bft)
12.05.2014 13:10 13,5 C 13,9 C 79 % 1009,1 hPa 0,0 l/m 2 min 0 min 1,7 UV-I 1025 W/m 30,9 km/h (5 Bft)
12.05.2014 13:12 13,4 C 13,3 C 77 % 1009,1 hPa 0,0 l/m 2 min 0 min 1,5 UV-I 1025 W/m 30,9 km/h (5 Bft)
12.05.2014 13:14 13,4 C 13,3 C 77 % 1009,2 hPa 0,0 l/m 0 min 0 min 1,1 UV-I 304 W/m 12,9 km/h (3 Bft)
12.05.2014 13:16 13,2 C 13,3 C 76 % 1009,1 hPa 0,0 l/m 0 min 0 min 1,8 UV-I 367 W/m 20,6 km/h (4 Bft)
12.05.2014 13:18 13,2 C 13,3 C 77 % 1009,1 hPa 0,0 l/m 0 min 0 min 2,0 UV-I 367 W/m 10,3 km/h (2 Bft)
12.05.2014 13:20 13,3 C 13,3 C 76 % 1009,2 hPa 0,0 l/m 0 min 0 min 1,7 UV-I 431 W/m 25,7 km/h (4 Bft)
12.05.2014 13:22 13,4 C 13,9 C 76 % 1009,1 hPa 0,0 l/m 0 min 0 min 1,4 UV-I 431 W/m 23,2 km/h (4 Bft)
12.05.2014 13:24 13,4 C 13,9 C 76 % 1009,1 hPa 0,0 l/m 0 min 0 min 1,3 UV-I 373 W/m 10,3 km/h (2 Bft)
12.05.2014 13:26 13,4 C 13,9 C 77 % 1009,1 hPa 0,0 l/m 0 min 0 min 1,0 UV-I 309 W/m 12,9 km/h (3 Bft)
12.05.2014 13:28 13,4 C 13,3 C 77 % 1009,1 hPa 0,0 l/m 0 min 0 min 0,7 UV-I 267 W/m 23,2 km/h (4 Bft)
12.05.2014 13:30 13,2 C 13,3 C 76 % 1009,1 hPa 0,0 l/m 0 min 0 min 0,0 UV-I 197 W/m 12,9 km/h (3 Bft)
12.05.2014 13:32 13,1 C 12,8 C 76 % 1009,1 hPa 0,0 l/m 0 min 0 min 0,0 UV-I 165 W/m 15,4 km/h (3 Bft)
12.05.2014 13:34 12,9 C 12,2 C 76 % 1009,1 hPa 0,0 l/m 0 min 0 min 0,0 UV-I 156 W/m 15,4 km/h (3 Bft)
12.05.2014 13:36 12,8 C 12,2 C 78 % 1009,0 hPa 0,0 l/m 0 min 0 min 0,0 UV-I 179 W/m 10,3 km/h (2 Bft)
12.05.2014 13:38 12,7 C 12,2 C 78 % 1009,1 hPa 0,0 l/m 0 min 0 min 0,0 UV-I 216 W/m 15,4 km/h (3 Bft)
12.05.2014 13:40 12,7 C 12,2 C 78 % 1009,2 hPa 0,0 l/m 0 min 0 min 0,0 UV-I 206 W/m 23,2 km/h (4 Bft)
12.05.2014 13:42 12,7 C 12,2 C 78 % 1009,1 hPa 0,0 l/m 0 min 0 min 0,0 UV-I 114 W/m 18,0 km/h (3 Bft)
12.05.2014 13:44 12,7 C 11,7 C 78 % 1009,1 hPa 0,0 l/m 0 min 2 min 0,0 UV-I 79 W/m 15,4 km/h (3 Bft)
12.05.2014 13:46 12,5 C 10,0 C 80 % 1009,1 hPa 0,2 l/m 0 min 2 min 0,0 UV-I 105 W/m 23,2 km/h (4 Bft)
12.05.2014 13:48 12,3 C 10,0 C 81 % 1009,2 hPa 0,0 l/m 0 min 2 min 0,0 UV-I 134 W/m 15,4 km/h (3 Bft)
12.05.2014 13:50 12,0 C 9,4 C 83 % 1009,1 hPa 0,0 l/m 0 min 2 min 0,0 UV-I 169 W/m 7,7 km/h (2 Bft)
12.05.2014 13:52 11,7 C 9,4 C 85 % 1009,3 hPa 0,2 l/m 0 min 2 min 0,0 UV-I 178 W/m 10,3 km/h (2 Bft)
12.05.2014 13:54 11,6 C 9,4 C 85 % 1009,2 hPa 0,0 l/m 0 min 2 min 0,0 UV-I 218 W/m 12,9 km/h (3 Bft)
12.05.2014 13:56 11,6 C 10,0 C 86 % 1009,2 hPa 0,0 l/m 0 min 2 min 0,7 UV-I 278 W/m 15,4 km/h (3 Bft)
12.05.2014 13:58 11,6 C 10,6 C 88 % 1009,1 hPa 0,0 l/m 0 min 2 min 1,0 UV-I 318 W/m 0,0 km/h (0 Bft)
12.05.2014 14:00 11,8 C 10,6 C 88 % 1009,2 hPa 0,0 l/m 0 min 2 min 0,9 UV-I 281 W/m 5,1 km/h (1 Bft)
12.05.2014 14:02 11,9 C 11,1 C 88 % 1009,1 hPa 0,0 l/m 0 min 2 min 0,8 UV-I 260 W/m 12,9 km/h (3 Bft)
12.05.2014 14:05 12,1 C 10,6 C 87 % 1009,0 hPa 0,0 l/m 0 min 2 min 0,0 UV-I 174 W/m 10,3 km/h (2 Bft)
12.05.2014 14:06 12,1 C 10,6 C 87 % 1009,0 hPa 0,0 l/m 0 min 1 min 0,0 UV-I 139 W/m 7,7 km/h (2 Bft)
12.05.2014 14:08 12,1 C 10,0 C 87 % 1009,0 hPa 0,0 l/m 0 min 2 min 0,0 UV-I 116 W/m 7,7 km/h (2 Bft)
12.05.2014 14:10 12,0 C 10,0 C 86 % 1009,0 hPa 0,0 l/m 0 min 2 min 0,0 UV-I 83 W/m 10,3 km/h (2 Bft)
12.05.2014 14:12 11,9 C 9,4 C 85 % 1008,9 hPa 0,0 l/m 0 min 2 min 0,0 UV-I 81 W/m 2,6 km/h (1 Bft)
12.05.2014 14:14 11,9 C 10,0 C 86 % 1009,0 hPa 0,0 l/m 0 min 2 min 0,0 UV-I 83 W/m 0,0 km/h (0 Bft)
12.05.2014 14:16 11,8 C 10,0 C 86 % 1008,9 hPa 0,0 l/m 0 min 2 min 0,0 UV-I 98 W/m 10,3 km/h (2 Bft)
12.05.2014 14:18 11,8 C 9,4 C 86 % 1009,0 hPa 0,0 l/m 0 min 0 min 0,0 UV-I 76 W/m 12,9 km/h (3 Bft)
12.05.2014 14:20 11,8 C 9,4 C 86 % 1009,0 hPa 0,0 l/m 0 min 0 min 0,0 UV-I 69 W/m 15,4 km/h (3 Bft)
12.05.2014 14:22 11,7 C 9,4 C 85 % 1008,9 hPa 0,0 l/m 0 min 0 min 0,0 UV-I 81 W/m 12,9 km/h (3 Bft)
12.05.2014 14:24 11,8 C 9,4 C 85 % 1008,9 hPa 0,0 l/m 0 min 0 min 0,0 UV-I 105 W/m 12,9 km/h (3 Bft)
12.05.2014 14:26 11,8 C 9,4 C 85 % 1008,9 hPa 0,0 l/m 0 min 0 min 0,0 UV-I 113 W/m 5,1 km/h (1 Bft)
12.05.2014 14:28 11,9 C 9,4 C 85 % 1008,9 hPa 0,0 l/m 0 min 0 min 0,0 UV-I 79 W/m 18,0 km/h (3 Bft)
12.05.2014 14:30 11,9 C 9,4 C 84 % 1009,0 hPa 0,0 l/m 0 min 2 min 0,0 UV-I 39 W/m 7,7 km/h (2 Bft)
12.05.2014 14:32 11,9 C 9,4 C 84 % 1009,0 hPa 0,0 l/m 0 min 2 min 0,0 UV-I 33 W/m 0,0 km/h (0 Bft)
12.05.2014 14:34 11,9 C 9,4 C 84 % 1009,2 hPa 0,6 l/m 0 min 2 min 0,0 UV-I 28 W/m 15,4 km/h (3 Bft)
12.05.2014 14:36 11,8 C 8,9 C 85 % 1009,2 hPa 1,2 l/m 0 min 2 min 0,0 UV-I 21 W/m 15,4 km/h (3 Bft)
12.05.2014 14:38 11,5 C 8,9 C 86 % 1009,1 hPa 0,2 l/m 0 min 2 min 0,0 UV-I 26 W/m 12,9 km/h (3 Bft)
12.05.2014 14:40 11,3 C 8,9 C 88 % 1009,2 hPa 0,4 l/m 0 min 2 min 0,0 UV-I 32 W/m 0,0 km/h (0 Bft)
12.05.2014 14:42 11,1 C 8,9 C 89 % 1009,2 hPa 0,0 l/m 0 min 2 min 0,0 UV-I 83 W/m 7,7 km/h (2 Bft)
12.05.2014 14:44 11,0 C 9,4 C 89 % 1009,2 hPa 0,0 l/m 0 min 2 min 0,0 UV-I 95 W/m 2,6 km/h (1 Bft)
12.05.2014 14:46 10,9 C 9,4 C 90 % 1009,2 hPa 0,2 l/m 0 min 2 min 0,0 UV-I 83 W/m 10,3 km/h (2 Bft)
12.05.2014 14:48 10,9 C 9,4 C 91 % 1009,2 hPa 0,0 l/m 0 min 2 min 0,0 UV-I 91 W/m 5,1 km/h (1 Bft)
12.05.2014 14:50 10,8 C 9,4 C 91 % 1009,2 hPa 0,0 l/m 0 min 2 min 0,0 UV-I 107 W/m 0,0 km/h (0 Bft)
12.05.2014 14:52 10,8 C 9,4 C 92 % 1009,2 hPa 0,0 l/m 0 min 2 min 0,0 UV-I 90 W/m 0,0 km/h (0 Bft)
12.05.2014 14:54 10,8 C 9,4 C 93 % 1009,3 hPa 0,0 l/m 0 min 2 min 0,0 UV-I 53 W/m 5,1 km/h (1 Bft)
12.05.2014 14:56 10,8 C 9,4 C 93 % 1009,3 hPa 0,0 l/m 0 min 0 min 0,0 UV-I 39 W/m 2,6 km/h (1 Bft)
12.05.2014 14:58 10,8 C 9,4 C 93 % 1009,3 hPa 0,0 l/m 0 min 0 min 0,0 UV-I 28 W/m 7,7 km/h (2 Bft)
12.05.2014 15:00 10,7 C 8,9 C 93 % 1009,5 hPa 0,0 l/m 0 min 2 min 0,0 UV-I 18 W/m 12,9 km/h (3 Bft)
12.05.2014 15:02 10,5 C 8,9 C 93 % 1009,7 hPa 0,0 l/m 0 min 2 min 0,0 UV-I 12 W/m 15,4 km/h (3 Bft)
12.05.2014 15:05 10,3 C 8,9 C 93 % 1009,8 hPa 1,0 l/m 0 min 2 min 0,0 UV-I 19 W/m 10,3 km/h (2 Bft)
12.05.2014 15:06 10,2 C 8,9 C 93 % 1009,8 hPa 0,4 l/m 0 min 1 min 0,0 UV-I 21 W/m 18,0 km/h (3 Bft)
12.05.2014 15:08 9,8 C 7,2 C 93 % 1010,0 hPa 1,2 l/m 0 min 2 min 0,0 UV-I 23 W/m 18,0 km/h (3 Bft)
12.05.2014 15:10 9,3 C 6,7 C 93 % 1009,9 hPa 0,8 l/m 0 min 2 min 0,0 UV-I 35 W/m 12,9 km/h (3 Bft)
12.05.2014 15:12 9,0 C 6,7 C 92 % 1009,9 hPa 0,2 l/m 0 min 2 min 0,0 UV-I 39 W/m 0,0 km/h (0 Bft)
12.05.2014 15:14 8,8 C 6,7 C 93 % 1010,0 hPa 0,0 l/m 0 min 2 min 0,0 UV-I 39 W/m 0,0 km/h (0 Bft)
12.05.2014 15:16 8,8 C 7,2 C 93 % 1010,0 hPa 0,0 l/m 0 min 2 min 0,0 UV-I 53 W/m 15,4 km/h (3 Bft)
12.05.2014 15:18 8,8 C 7,2 C 94 % 1010,0 hPa 0,0 l/m 0 min 2 min 0,0 UV-I 56 W/m 7,7 km/h (2 Bft)
12.05.2014 15:20 8,9 C 7,2 C 94 % 1010,0 hPa 0,2 l/m 0 min 2 min 0,0 UV-I 53 W/m 18,0 km/h (3 Bft)
12.05.2014 15:22 8,9 C 7,2 C 94 % 1010,0 hPa 0,0 l/m 0 min 2 min 0,0 UV-I 40 W/m 2,6 km/h (1 Bft)
12.05.2014 15:24 8,9 C 7,2 C 95 % 1010,0 hPa 0,4 l/m 0 min 2 min 0,0 UV-I 37 W/m 7,7 km/h (2 Bft)
12.05.2014 15:26 8,9 C 7,2 C 95 % 1009,9 hPa 0,2 l/m 0 min 2 min 0,0 UV-I 42 W/m 7,7 km/h (2 Bft)
12.05.2014 15:28 8,9 C 7,8 C 95 % 1009,9 hPa 0,0 l/m 0 min 2 min 0,0 UV-I 54 W/m 0,0 km/h (0 Bft)
12.05.2014 15:30 8,9 C 7,8 C 95 % 1009,9 hPa 0,0 l/m 0 min 2 min 0,0 UV-I 63 W/m 0,0 km/h (0 Bft)
12.05.2014 15:32 8,9 C 7,8 C 95 % 1010,0 hPa 0,0 l/m 0 min 0 min 0,0 UV-I 70 W/m 0,0 km/h (0 Bft)
12.05.2014 15:34 8,9 C 7,8 C 95 % 1010,0 hPa 0,0 l/m 0 min 2 min 0,0 UV-I 81 W/m 0,0 km/h (0 Bft)
12.05.2014 15:36 8,9 C 7,8 C 95 % 1010,0 hPa 0,2 l/m 0 min 2 min 0,0 UV-I 97 W/m 2,6 km/h (1 Bft)
12.05.2014 15:38 9,0 C 8,3 C 95 % 1010,0 hPa 0,0 l/m 0 min 2 min 0,0 UV-I 111 W/m 0,0 km/h (0 Bft)
12.05.2014 15:40 9,0 C 8,3 C 95 % 1010,1 hPa 0,0 l/m 0 min 2 min 0,0 UV-I 127 W/m 0,0 km/h (0 Bft)
12.05.2014 15:42 9,1 C 8,3 C 96 % 1010,0 hPa 0,0 l/m 0 min 2 min 0,0 UV-I 132 W/m 2,6 km/h (1 Bft)
12.05.2014 15:44 9,0 C 8,3 C 96 % 1010,1 hPa 0,0 l/m 0 min 2 min 0,0 UV-I 144 W/m 0,0 km/h (0 Bft)
12.05.2014 15:46 9,1 C 8,9 C 96 % 1010,1 hPa 0,0 l/m 0 min 0 min 0,0 UV-I 192 W/m 0,0 km/h (0 Bft)
12.05.2014 15:48 9,2 C 8,9 C 96 % 1010,0 hPa 0,0 l/m 0 min 0 min 0,0 UV-I 214 W/m 5,1 km/h (1 Bft)
12.05.2014 15:50 9,4 C 8,9 C 96 % 1010,0 hPa 0,0 l/m 0 min 0 min 0,5 UV-I 232 W/m 0,0 km/h (0 Bft)
12.05.2014 15:52 9,5 C 9,4 C 96 % 1010,0 hPa 0,0 l/m 0 min 0 min 0,6 UV-I 267 W/m 5,1 km/h (1 Bft)
12.05.2014 15:54 9,6 C 9,4 C 96 % 1009,9 hPa 0,0 l/m 0 min 0 min 0,7 UV-I 281 W/m 5,1 km/h (1 Bft)
12.05.2014 15:56 9,9 C 9,4 C 96 % 1010,0 hPa 0,0 l/m 0 min 0 min 0,8 UV-I 299 W/m 0,0 km/h (0 Bft)
12.05.2014 15:58 9,9 C 10,0 C 96 % 1010,0 hPa 0,0 l/m 0 min 0 min 0,7 UV-I 285 W/m 5,1 km/h (1 Bft)
12.05.2014 16:00 10,1 C 10,0 C 97 % 1010,0 hPa 0,0 l/m 0 min 0 min 0,6 UV-I 279 W/m 0,0 km/h (0 Bft)
12.05.2014 16:02 10,1 C 10,0 C 97 % 1010,0 hPa 0,0 l/m 0 min 0 min 0,7 UV-I 295 W/m 0,0 km/h (0 Bft)
12.05.2014 16:05 10,1 C 10,0 C 97 % 1010,0 hPa 0,0 l/m 0 min 0 min 0,8 UV-I 309 W/m 5,1 km/h (1 Bft)
12.05.2014 16:06 10,1 C 10,0 C 97 % 1010,0 hPa 0,0 l/m 0 min 0 min 0,8 UV-I 309 W/m 0,0 km/h (0 Bft)
12.05.2014 16:08 10,4 C 10,0 C 97 % 1010,0 hPa 0,0 l/m 0 min 0 min 0,9 UV-I 322 W/m 0,0 km/h (0 Bft)
12.05.2014 16:10 10,3 C 10,0 C 97 % 1010,0 hPa 0,0 l/m 0 min 0 min 0,9 UV-I 330 W/m 7,7 km/h (2 Bft)
12.05.2014 16:12 10,5 C 10,6 C 97 % 1010,0 hPa 0,0 l/m 0 min 0 min 0,8 UV-I 318 W/m 0,0 km/h (0 Bft)
12.05.2014 16:14 10,7 C 10,6 C 97 % 1010,0 hPa 0,0 l/m 0 min 0 min 0,7 UV-I 297 W/m 5,1 km/h (1 Bft)
12.05.2014 16:16 10,7 C 10,6 C 97 % 1010,0 hPa 0,0 l/m 0 min 0 min 0,5 UV-I 251 W/m 7,7 km/h (2 Bft)
12.05.2014 16:18 10,7 C 10,6 C 96 % 1010,0 hPa 0,0 l/m 0 min 0 min 0,0 UV-I 209 W/m 5,1 km/h (1 Bft)
12.05.2014 16:20 10,7 C 10,0 C 96 % 1010,1 hPa 0,0 l/m 0 min 0 min 0,0 UV-I 162 W/m 12,9 km/h (3 Bft)
12.05.2014 16:22 10,7 C 10,0 C 96 % 1010,1 hPa 0,0 l/m 0 min 0 min 0,0 UV-I 104 W/m 2,6 km/h (1 Bft)
12.05.2014 16:24 10,6 C 9,4 C 96 % 1010,1 hPa 0,0 l/m 0 min 2 min 0,0 UV-I 84 W/m 7,7 km/h (2 Bft)
12.05.2014 16:26 10,5 C 9,4 C 96 % 1010,2 hPa 0,0 l/m 0 min 2 min 0,0 UV-I 76 W/m 2,6 km/h (1 Bft)
12.05.2014 16:28 10,4 C 9,4 C 95 % 1010,1 hPa 0,0 l/m 0 min 2 min 0,0 UV-I 54 W/m 10,3 km/h (2 Bft)
12.05.2014 16:30 10,4 C 9,4 C 95 % 1010,2 hPa 0,0 l/m 0 min 2 min 0,0 UV-I 44 W/m 10,3 km/h (2 Bft)
12.05.2014 16:32 10,3 C 8,9 C 95 % 1010,2 hPa 0,0 l/m 0 min 2 min 0,0 UV-I 54 W/m 5,1 km/h (1 Bft)
12.05.2014 16:34 10,3 C 8,9 C 95 % 1010,1 hPa 0,0 l/m 0 min 2 min 0,0 UV-I 62 W/m 10,3 km/h (2 Bft)
12.05.2014 16:36 10,3 C 8,9 C 95 % 1010,2 hPa 0,2 l/m 0 min 2 min 0,0 UV-I 72 W/m 15,4 km/h (3 Bft)
12.05.2014 16:38 10,2 C 8,9 C 95 % 1010,2 hPa 0,0 l/m 0 min 2 min 0,0 UV-I 72 W/m 15,4 km/h (3 Bft)
12.05.2014 16:40 10,2 C 8,9 C 95 % 1010,2 hPa 0,2 l/m 0 min 2 min 0,0 UV-I 63 W/m 10,3 km/h (2 Bft)
12.05.2014 16:42 10,2 C 8,9 C 95 % 1010,3 hPa 0,0 l/m 0 min 2 min 0,0 UV-I 58 W/m 0,0 km/h (0 Bft)
12.05.2014 16:44 10,2 C 8,9 C 95 % 1010,4 hPa 0,0 l/m 0 min 2 min 0,0 UV-I 53 W/m 7,7 km/h (2 Bft)
12.05.2014 16:46 10,2 C 8,9 C 95 % 1010,4 hPa 0,2 l/m 0 min 2 min 0,0 UV-I 51 W/m 0,0 km/h (0 Bft)
12.05.2014 16:48 10,1 C 8,9 C 95 % 1010,4 hPa 0,2 l/m 0 min 2 min 0,0 UV-I 51 W/m 5,1 km/h (1 Bft)
12.05.2014 16:50 9,9 C 8,3 C 95 % 1010,4 hPa 0,0 l/m 0 min 2 min 0,0 UV-I 56 W/m 23,2 km/h (4 Bft)
12.05.2014 16:52 9,7 C 8,3 C 95 % 1010,4 hPa 0,0 l/m 0 min 2 min 0,0 UV-I 63 W/m 5,1 km/h (1 Bft)
12.05.2014 16:54 9,6 C 8,3 C 95 % 1010,4 hPa 0,0 l/m 0 min 2 min 0,0 UV-I 70 W/m 15,4 km/h (3 Bft)
12.05.2014 16:56 9,6 C 8,3 C 95 % 1010,4 hPa 0,0 l/m 0 min 2 min 0,0 UV-I 79 W/m 10,3 km/h (2 Bft)
12.05.2014 16:58 9,6 C 8,3 C 95 % 1010,4 hPa 0,0 l/m 0 min 2 min 0,0 UV-I 76 W/m 12,9 km/h (3 Bft)
12.05.2014 17:00 9,6 C 8,3 C 95 % 1010,4 hPa 0,0 l/m 0 min 2 min 0,0 UV-I 70 W/m 12,9 km/h (3 Bft)
12.05.2014 17:02 9,6 C 8,3 C 95 % 1010,4 hPa 0,0 l/m 0 min 0 min 0,0 UV-I 63 W/m 2,6 km/h (1 Bft)
12.05.2014 17:05 9,6 C 8,3 C 95 % 1010,4 hPa 0,0 l/m 0 min 2 min 0,0 UV-I 67 W/m 12,9 km/h (3 Bft)
12.05.2014 17:06 9,5 C 8,3 C 95 % 1010,4 hPa 0,0 l/m 0 min 1 min 0,0 UV-I 74 W/m 5,1 km/h (1 Bft)
12.05.2014 17:08 9,5 C 8,3 C 95 % 1010,4 hPa 0,0 l/m 0 min 2 min 0,0 UV-I 95 W/m 7,7 km/h (2 Bft)
12.05.2014 17:10 9,6 C 8,3 C 95 % 1010,4 hPa 0,0 l/m 0 min 2 min 0,0 UV-I 102 W/m 15,4 km/h (3 Bft)
12.05.2014 17:12 9,5 C 8,3 C 95 % 1010,4 hPa 0,0 l/m 0 min 2 min 0,0 UV-I 105 W/m 18,0 km/h (3 Bft)
12.05.2014 17:14 9,5 C 8,3 C 95 % 1010,4 hPa 0,0 l/m 0 min 2 min 0,0 UV-I 107 W/m 2,6 km/h (1 Bft)
12.05.2014 17:16 9,4 C 8,3 C 95 % 1010,4 hPa 0,0 l/m 0 min 2 min 0,0 UV-I 105 W/m 18,0 km/h (3 Bft)
12.05.2014 17:18 9,4 C 8,3 C 95 % 1010,4 hPa 0,0 l/m 0 min 2 min 0,0 UV-I 102 W/m 15,4 km/h (3 Bft)
12.05.2014 17:20 9,4 C 8,3 C 95 % 1010,4 hPa 0,2 l/m 0 min 2 min 0,0 UV-I 100 W/m 15,4 km/h (3 Bft)
12.05.2014 17:22 9,5 C 8,9 C 95 % 1010,4 hPa 0,0 l/m 0 min 2 min 0,0 UV-I 104 W/m 0,0 km/h (0 Bft)
12.05.2014 17:24 9,5 C 8,9 C 95 % 1010,4 hPa 0,0 l/m 0 min 2 min 0,0 UV-I 109 W/m 7,7 km/h (2 Bft)
12.05.2014 17:26 9,6 C 8,9 C 95 % 1010,4 hPa 0,0 l/m 0 min 2 min 0,0 UV-I 118 W/m 7,7 km/h (2 Bft)
12.05.2014 17:28 9,6 C 8,9 C 95 % 1010,4 hPa 0,0 l/m 0 min 2 min 0,0 UV-I 120 W/m 10,3 km/h (2 Bft)
12.05.2014 17:30 9,6 C 8,9 C 95 % 1010,5 hPa 0,0 l/m 0 min 2 min 0,0 UV-I 125 W/m 7,7 km/h (2 Bft)
12.05.2014 17:32 9,6 C 8,9 C 95 % 1010,5 hPa 0,0 l/m 0 min 2 min 0,0 UV-I 134 W/m 7,7 km/h (2 Bft)
12.05.2014 17:34 9,7 C 8,9 C 95 % 1010,4 hPa 0,0 l/m 0 min 2 min 0,0 UV-I 137 W/m 0,0 km/h (0 Bft)
12.05.2014 17:36 9,7 C 8,9 C 95 % 1010,4 hPa 0,0 l/m 0 min 2 min 0,0 UV-I 141 W/m 12,9 km/h (3 Bft)
12.05.2014 17:38 9,7 C 8,9 C 95 % 1010,4 hPa 0,0 l/m 0 min 2 min 0,0 UV-I 148 W/m 5,1 km/h (1 Bft)
12.05.2014 17:40 9,7 C 8,9 C 96 % 1010,4 hPa 0,0 l/m 0 min 2 min 0,0 UV-I 148 W/m 0,0 km/h (0 Bft)
12.05.2014 17:42 9,7 C 8,9 C 96 % 1010,4 hPa 0,0 l/m 0 min 2 min 0,0 UV-I 146 W/m 10,3 km/h (2 Bft)
12.05.2014 17:44 9,7 C 8,9 C 96 % 1010,4 hPa 0,0 l/m 0 min 2 min 0,0 UV-I 135 W/m 7,7 km/h (2 Bft)
12.05.2014 17:46 9,7 C 8,9 C 96 % 1010,5 hPa 0,2 l/m 0 min 2 min 0,0 UV-I 130 W/m 5,1 km/h (1 Bft)
12.05.2014 17:48 9,7 C 8,9 C 96 % 1010,5 hPa 0,0 l/m 0 min 2 min 0,0 UV-I 127 W/m 7,7 km/h (2 Bft)
12.05.2014 17:50 9,7 C 8,9 C 96 % 1010,5 hPa 0,0 l/m 0 min 2 min 0,0 UV-I 128 W/m 15,4 km/h (3 Bft)
12.05.2014 17:52 9,7 C 8,9 C 96 % 1010,5 hPa 0,0 l/m 0 min 2 min 0,0 UV-I 128 W/m 7,7 km/h (2 Bft)
12.05.2014 17:54 9,7 C 8,9 C 95 % 1010,6 hPa 0,0 l/m 0 min 2 min 0,0 UV-I 128 W/m 2,6 km/h (1 Bft)
12.05.2014 17:56 9,7 C 8,9 C 95 % 1010,5 hPa 0,0 l/m 0 min 2 min 0,0 UV-I 132 W/m 10,3 km/h (2 Bft)
12.05.2014 17:58 9,7 C 8,9 C 95 % 1010,5 hPa 0,0 l/m 0 min 2 min 0,0 UV-I 137 W/m 0,0 km/h (0 Bft)
12.05.2014 18:00 9,7 C 8,9 C 95 % 1010,5 hPa 0,0 l/m 0 min 2 min 0,0 UV-I 144 W/m 0,0 km/h (0 Bft)
12.05.2014 18:02 9,7 C 8,9 C 95 % 1010,5 hPa 0,0 l/m 0 min 2 min 0,0 UV-I 144 W/m 5,1 km/h (1 Bft)
12.05.2014 18:05 9,7 C 8,9 C 95 % 1010,5 hPa 0,0 l/m 0 min 2 min 0,0 UV-I 130 W/m 2,6 km/h (1 Bft)
12.05.2014 18:06 9,7 C 8,9 C 95 % 1010,5 hPa 0,0 l/m 0 min 1 min 0,0 UV-I 127 W/m 5,1 km/h (1 Bft)
12.05.2014 18:08 9,7 C 8,9 C 95 % 1010,5 hPa 0,0 l/m 0 min 2 min 0,0 UV-I 118 W/m 0,0 km/h (0 Bft)
12.05.2014 18:10 9,7 C 8,9 C 95 % 1010,5 hPa 0,0 l/m 0 min 2 min 0,0 UV-I 116 W/m 0,0 km/h (0 Bft)
12.05.2014 18:12 9,7 C 8,9 C 95 % 1010,5 hPa 0,0 l/m 0 min 2 min 0,0 UV-I 118 W/m 0,0 km/h (0 Bft)
12.05.2014 18:14 9,7 C 8,9 C 95 % 1010,5 hPa 0,0 l/m 0 min 2 min 0,0 UV-I 120 W/m 0,0 km/h (0 Bft)
12.05.2014 18:16 9,7 C 8,9 C 95 % 1010,5 hPa 0,0 l/m 0 min 2 min 0,0 UV-I 118 W/m 5,1 km/h (1 Bft)
12.05.2014 18:18 9,7 C 8,9 C 95 % 1010,5 hPa 0,0 l/m 0 min 2 min 0,0 UV-I 118 W/m 2,6 km/h (1 Bft)
12.05.2014 18:20 9,8 C 8,9 C 96 % 1010,5 hPa 0,0 l/m 0 min 2 min 0,0 UV-I 121 W/m 5,1 km/h (1 Bft)
12.05.2014 18:22 9,8 C 8,9 C 95 % 1010,5 hPa 0,0 l/m 0 min 2 min 0,0 UV-I 125 W/m 0,0 km/h (0 Bft)
12.05.2014 18:24 9,8 C 8,9 C 96 % 1010,5 hPa 0,0 l/m 0 min 2 min 0,0 UV-I 128 W/m 2,6 km/h (1 Bft)
12.05.2014 18:26 9,8 C 8,9 C 96 % 1010,5 hPa 0,0 l/m 0 min 2 min 0,0 UV-I 130 W/m 0,0 km/h (0 Bft)
12.05.2014 18:28 9,8 C 8,9 C 96 % 1010,5 hPa 0,0 l/m 0 min 2 min 0,0 UV-I 134 W/m 5,1 km/h (1 Bft)
12.05.2014 18:30 9,8 C 8,9 C 96 % 1010,5 hPa 0,0 l/m 0 min 2 min 0,0 UV-I 137 W/m 0,0 km/h (0 Bft)
12.05.2014 18:32 9,9 C 8,9 C 96 % 1010,5 hPa 0,0 l/m 0 min 2 min 0,0 UV-I 141 W/m 0,0 km/h (0 Bft)
12.05.2014 18:34 9,9 C 9,4 C 96 % 1010,5 hPa 0,0 l/m 0 min 2 min 0,0 UV-I 144 W/m 0,0 km/h (0 Bft)
12.05.2014 18:36 9,9 C 9,4 C 95 % 1010,5 hPa 0,0 l/m 0 min 2 min 0,0 UV-I 142 W/m 0,0 km/h (0 Bft)
12.05.2014 18:38 10,0 C 9,4 C 95 % 1010,5 hPa 0,0 l/m 0 min 2 min 0,0 UV-I 142 W/m 0,0 km/h (0 Bft)
12.05.2014 18:40 10,0 C 9,4 C 95 % 1010,5 hPa 0,0 l/m 0 min 2 min 0,0 UV-I 141 W/m 0,0 km/h (0 Bft)
12.05.2014 18:42 10,0 C 9,4 C 95 % 1010,5 hPa 0,0 l/m 0 min 2 min 0,0 UV-I 137 W/m 7,7 km/h (2 Bft)
12.05.2014 18:44 9,9 C 9,4 C 95 % 1010,5 hPa 0,0 l/m 0 min 2 min 0,0 UV-I 139 W/m 0,0 km/h (0 Bft)
12.05.2014 18:46 10,0 C 9,4 C 95 % 1010,5 hPa 0,0 l/m 0 min 2 min 0,0 UV-I 137 W/m 2,6 km/h (1 Bft)
12.05.2014 18:48 10,1 C 9,4 C 95 % 1010,5 hPa 0,0 l/m 0 min 2 min 0,0 UV-I 134 W/m 0,0 km/h (0 Bft)
12.05.2014 18:50 10,1 C 9,4 C 96 % 1010,5 hPa 0,0 l/m 0 min 2 min 0,0 UV-I 130 W/m 2,6 km/h (1 Bft)
12.05.2014 18:52 10,2 C 9,4 C 96 % 1010,4 hPa 0,0 l/m 0 min 0 min 0,0 UV-I 127 W/m 0,0 km/h (0 Bft)
12.05.2014 18:54 10,2 C 9,4 C 96 % 1010,5 hPa 0,0 l/m 0 min 0 min 0,0 UV-I 121 W/m 0,0 km/h (0 Bft)
12.05.2014 18:56 10,3 C 9,4 C 96 % 1010,4 hPa 0,0 l/m 0 min 0 min 0,0 UV-I 125 W/m 0,0 km/h (0 Bft)
12.05.2014 18:58 10,3 C 9,4 C 96 % 1010,5 hPa 0,0 l/m 0 min 0 min 0,0 UV-I 134 W/m 0,0 km/h (0 Bft)
12.05.2014 19:00 10,3 C 9,4 C 96 % 1010,5 hPa 0,0 l/m 0 min 2 min 0,0 UV-I 139 W/m 0,0 km/h (0 Bft)
12.05.2014 19:02 10,4 C 10,0 C 96 % 1010,5 hPa 0,0 l/m 0 min 2 min 0,0 UV-I 141 W/m 0,0 km/h (0 Bft)
12.05.2014 19:05 10,5 C 10,0 C 96 % 1010,6 hPa 0,0 l/m 0 min 2 min 0,0 UV-I 141 W/m 0,0 km/h (0 Bft)
12.05.2014 19:06 10,5 C 10,0 C 96 % 1010,6 hPa 0,0 l/m 0 min 1 min 0,0 UV-I 141 W/m 0,0 km/h (0 Bft)
12.05.2014 19:08 10,6 C 10,0 C 96 % 1010,6 hPa 0,0 l/m 0 min 2 min 0,0 UV-I 137 W/m 0,0 km/h (0 Bft)
12.05.2014 19:10 10,6 C 10,0 C 96 % 1010,5 hPa 0,0 l/m 0 min 0 min 0,0 UV-I 134 W/m 0,0 km/h (0 Bft)
12.05.2014 19:12 10,5 C 9,4 C 96 % 1010,5 hPa 0,0 l/m 0 min 0 min 0,0 UV-I 125 W/m 0,0 km/h (0 Bft)
12.05.2014 19:14 10,4 C 9,4 C 95 % 1010,6 hPa 0,0 l/m 0 min 0 min 0,0 UV-I 116 W/m 0,0 km/h (0 Bft)
12.05.2014 19:16 10,4 C 9,4 C 95 % 1010,6 hPa 0,0 l/m 0 min 0 min 0,0 UV-I 98 W/m 5,1 km/h (1 Bft)
12.05.2014 19:18 10,4 C 9,4 C 95 % 1010,6 hPa 0,0 l/m 0 min 0 min 0,0 UV-I 86 W/m 0,0 km/h (0 Bft)
12.05.2014 19:20 10,3 C 9,4 C 95 % 1010,6 hPa 0,0 l/m 0 min 0 min 0,0 UV-I 76 W/m 0,0 km/h (0 Bft)
12.05.2014 19:22 10,3 C 9,4 C 95 % 1010,6 hPa 0,0 l/m 0 min 2 min 0,0 UV-I 67 W/m 0,0 km/h (0 Bft)
12.05.2014 19:24 10,3 C 9,4 C 95 % 1010,6 hPa 0,0 l/m 0 min 2 min 0,0 UV-I 62 W/m 2,6 km/h (1 Bft)
12.05.2014 19:26 10,3 C 9,4 C 95 % 1010,6 hPa 0,0 l/m 0 min 2 min 0,0 UV-I 58 W/m 5,1 km/h (1 Bft)
12.05.2014 19:28 10,2 C 8,9 C 95 % 1010,6 hPa 0,0 l/m 0 min 2 min 0,0 UV-I 58 W/m 0,0 km/h (0 Bft)
12.05.2014 19:30 10,2 C 8,9 C 95 % 1010,6 hPa 0,0 l/m 0 min 2 min 0,0 UV-I 54 W/m 5,1 km/h (1 Bft)
12.05.2014 19:32 10,2 C 8,9 C 95 % 1010,7 hPa 0,0 l/m 0 min 0 min 0,0 UV-I 47 W/m 5,1 km/h (1 Bft)
12.05.2014 19:34 10,1 C 8,9 C 95 % 1010,7 hPa 0,0 l/m 0 min 0 min 0,0 UV-I 47 W/m 0,0 km/h (0 Bft)
12.05.2014 19:36 10,1 C 8,9 C 95 % 1010,7 hPa 0,0 l/m 0 min 2 min 0,0 UV-I 49 W/m 10,3 km/h (2 Bft)
12.05.2014 19:38 10,1 C 8,9 C 94 % 1010,7 hPa 0,0 l/m 0 min 0 min 0,0 UV-I 54 W/m 0,0 km/h (0 Bft)
12.05.2014 19:40 10,1 C 8,9 C 94 % 1010,7 hPa 0,0 l/m 0 min 2 min 0,0 UV-I 63 W/m 0,0 km/h (0 Bft)
12.05.2014 19:42 10,0 C 8,9 C 94 % 1010,8 hPa 0,0 l/m 0 min 0 min 0,0 UV-I 69 W/m 5,1 km/h (1 Bft)
12.05.2014 19:44 10,0 C 8,9 C 94 % 1010,7 hPa 0,0 l/m 0 min 0 min 0,0 UV-I 74 W/m 0,0 km/h (0 Bft)
12.05.2014 19:46 10,1 C 8,9 C 94 % 1010,7 hPa 0,0 l/m 0 min 0 min 0,0 UV-I 76 W/m 0,0 km/h (0 Bft)
12.05.2014 19:48 10,1 C 8,9 C 94 % 1010,7 hPa 0,0 l/m 0 min 0 min 0,0 UV-I 69 W/m 0,0 km/h (0 Bft)
12.05.2014 19:50 10,1 C 8,9 C 94 % 1010,6 hPa 0,0 l/m 0 min 0 min 0,0 UV-I 67 W/m 0,0 km/h (0 Bft)
12.05.2014 19:52 10,0 C 8,9 C 94 % 1010,7 hPa 0,0 l/m 0 min 0 min 0,0 UV-I 63 W/m 0,0 km/h (0 Bft)
12.05.2014 19:54 10,0 C 8,9 C 94 % 1010,7 hPa 0,0 l/m 0 min 0 min 0,0 UV-I 60 W/m 2,6 km/h (1 Bft)
12.05.2014 19:56 10,0 C 8,9 C 94 % 1010,6 hPa 0,0 l/m 0 min 0 min 0,0 UV-I 56 W/m 5,1 km/h (1 Bft)
12.05.2014 19:58 10,1 C 8,9 C 94 % 1010,7 hPa 0,0 l/m 0 min 0 min 0,0 UV-I 53 W/m 0,0 km/h (0 Bft)
12.05.2014 20:00 10,0 C 8,9 C 94 % 1010,7 hPa 0,0 l/m 0 min 0 min 0,0 UV-I 47 W/m 5,1 km/h (1 Bft)
12.05.2014 20:02 10,0 C 8,9 C 94 % 1010,7 hPa 0,0 l/m 0 min 0 min 0,0 UV-I 44 W/m 0,0 km/h (0 Bft)
12.05.2014 20:05 10,0 C 8,9 C 94 % 1010,7 hPa 0,0 l/m 0 min 0 min 0,0 UV-I 46 W/m 0,0 km/h (0 Bft)
12.05.2014 20:06 10,0 C 8,9 C 94 % 1010,7 hPa 0,0 l/m 0 min 0 min 0,0 UV-I 49 W/m 0,0 km/h (0 Bft)
12.05.2014 20:08 10,0 C 8,9 C 94 % 1010,8 hPa 0,0 l/m 0 min 0 min 0,0 UV-I 53 W/m 0,0 km/h (0 Bft)
12.05.2014 20:10 10,0 C 8,9 C 94 % 1010,8 hPa 0,0 l/m 0 min 0 min 0,0 UV-I 53 W/m 0,0 km/h (0 Bft)
12.05.2014 20:12 10,0 C 8,9 C 94 % 1010,8 hPa 0,0 l/m 0 min 0 min 0,0 UV-I 53 W/m 0,0 km/h (0 Bft)
12.05.2014 20:14 10,0 C 8,3 C 94 % 1010,8 hPa 0,0 l/m 0 min 0 min 0,0 UV-I 49 W/m 2,6 km/h (1 Bft)
12.05.2014 20:16 10,0 C 8,9 C 93 % 1010,8 hPa 0,0 l/m 0 min 0 min 0,0 UV-I 47 W/m 0,0 km/h (0 Bft)
12.05.2014 20:18 10,0 C 8,9 C 93 % 1010,8 hPa 0,0 l/m 0 min 0 min 0,0 UV-I 46 W/m 0,0 km/h (0 Bft)
12.05.2014 20:20 10,1 C 8,9 C 93 % 1010,8 hPa 0,0 l/m 0 min 0 min 0,0 UV-I 42 W/m 0,0 km/h (0 Bft)
12.05.2014 20:22 10,1 C 8,9 C 93 % 1010,8 hPa 0,0 l/m 0 min 0 min 0,0 UV-I 39 W/m 0,0 km/h (0 Bft)
12.05.2014 20:24 10,1 C 8,9 C 93 % 1010,9 hPa 0,0 l/m 0 min 0 min 0,0 UV-I 37 W/m 0,0 km/h (0 Bft)
12.05.2014 20:26 10,1 C 8,9 C 93 % 1010,9 hPa 0,0 l/m 0 min 0 min 0,0 UV-I 33 W/m 0,0 km/h (0 Bft)
12.05.2014 20:28 10,1 C 8,9 C 93 % 1010,9 hPa 0,0 l/m 0 min 0 min 0,0 UV-I 28 W/m 0,0 km/h (0 Bft)
12.05.2014 20:30 10,1 C 8,9 C 93 % 1010,9 hPa 0,0 l/m 0 min 0 min 0,0 UV-I 25 W/m 0,0 km/h (0 Bft)
12.05.2014 20:32 10,0 C 8,9 C 93 % 1010,9 hPa 0,0 l/m 0 min 0 min 0,0 UV-I 21 W/m 0,0 km/h (0 Bft)
12.05.2014 20:34 10,0 C 8,9 C 93 % 1010,9 hPa 0,0 l/m 0 min 0 min 0,0 UV-I 18 W/m 0,0 km/h (0 Bft)
12.05.2014 20:36 10,0 C 8,3 C 93 % 1011,0 hPa 0,0 l/m 0 min 0 min 0,0 UV-I 16 W/m 0,0 km/h (0 Bft)
12.05.2014 20:38 10,0 C 8,3 C 93 % 1011,0 hPa 0,0 l/m 0 min 0 min 0,0 UV-I 14 W/m 0,0 km/h (0 Bft)
12.05.2014 20:40 10,0 C 8,3 C 93 % 1011,1 hPa 0,0 l/m 0 min 0 min 0,0 UV-I 14 W/m 0,0 km/h (0 Bft)
12.05.2014 20:42 10,0 C 8,3 C 93 % 1011,0 hPa 0,0 l/m 0 min 0 min 0,0 UV-I 16 W/m 2,6 km/h (1 Bft)
12.05.2014 20:44 10,0 C 8,3 C 93 % 1011,1 hPa 0,0 l/m 0 min 0 min 0,0 UV-I 14 W/m 0,0 km/h (0 Bft)
12.05.2014 20:46 9,9 C 8,3 C 93 % 1011,0 hPa 0,0 l/m 0 min 0 min 0,0 UV-I 14 W/m 0,0 km/h (0 Bft)
12.05.2014 20:48 9,9 C 8,3 C 93 % 1011,1 hPa 0,0 l/m 0 min 0 min 0,0 UV-I 14 W/m 7,7 km/h (2 Bft)
12.05.2014 20:50 9,9 C 8,3 C 93 % 1011,1 hPa 0,0 l/m 0 min 0 min 0,0 UV-I 12 W/m 2,6 km/h (1 Bft)
12.05.2014 20:52 9,9 C 8,3 C 93 % 1011,0 hPa 0,0 l/m 0 min 0 min 0,0 UV-I 11 W/m 0,0 km/h (0 Bft)
12.05.2014 20:54 9,9 C 8,3 C 93 % 1011,1 hPa 0,0 l/m 0 min 0 min 0,0 UV-I 9 W/m 2,6 km/h (1 Bft)
12.05.2014 20:56 9,9 C 8,3 C 93 % 1011,1 hPa 0,0 l/m 0 min 0 min 0,0 UV-I 9 W/m 0,0 km/h (0 Bft)
12.05.2014 20:58 9,9 C 8,3 C 93 % 1011,0 hPa 0,0 l/m 0 min 0 min 0,0 UV-I 9 W/m 2,6 km/h (1 Bft)
12.05.2014 21:00 9,9 C 8,3 C 93 % 1011,1 hPa 0,0 l/m 0 min 0 min 0,0 UV-I 9 W/m 0,0 km/h (0 Bft)
12.05.2014 21:02 9,9 C 8,3 C 93 % 1011,1 hPa 0,0 l/m 0 min 0 min 0,0 UV-I 7 W/m 0,0 km/h (0 Bft)
12.05.2014 21:05 9,9 C 8,3 C 93 % 1011,2 hPa 0,0 l/m 0 min 0 min 0,0 UV-I 5 W/m 0,0 km/h (0 Bft)
12.05.2014 21:06 9,9 C 8,3 C 93 % 1011,2 hPa 0,0 l/m 0 min 0 min 0,0 UV-I 5 W/m 2,6 km/h (1 Bft)
12.05.2014 21:08 9,9 C 8,3 C 94 % 1011,2 hPa 0,0 l/m 0 min 0 min 0,0 UV-I 5 W/m 7,7 km/h (2 Bft)
12.05.2014 21:10 9,8 C 8,3 C 94 % 1011,2 hPa 0,0 l/m 0 min 0 min 0,0 UV-I 0 W/m 0,0 km/h (0 Bft)
12.05.2014 21:12 9,8 C 8,3 C 94 % 1011,1 hPa 0,0 l/m 0 min 0 min 0,0 UV-I 0 W/m 7,7 km/h (2 Bft)
12.05.2014 21:14 9,7 C 8,3 C 93 % 1011,2 hPa 0,0 l/m 0 min 0 min 0,0 UV-I 0 W/m 7,7 km/h (2 Bft)
12.05.2014 21:16 9,7 C 8,3 C 93 % 1011,2 hPa 0,0 l/m 0 min 0 min 0,0 UV-I 0 W/m 5,1 km/h (1 Bft)
12.05.2014 21:18 9,6 C 7,8 C 93 % 1011,2 hPa 0,0 l/m 0 min 0 min 0,0 UV-I 0 W/m 2,6 km/h (1 Bft)
12.05.2014 21:20 9,6 C 7,8 C 93 % 1011,2 hPa 0,0 l/m 0 min 0 min 0,0 UV-I 0 W/m 12,9 km/h (3 Bft)
12.05.2014 21:22 9,5 C 7,8 C 93 % 1011,2 hPa 0,0 l/m 0 min 0 min 0,0 UV-I 0 W/m 7,7 km/h (2 Bft)
12.05.2014 21:24 9,5 C 7,8 C 93 % 1011,2 hPa 0,0 l/m 0 min 0 min 0,0 UV-I 0 W/m 5,1 km/h (1 Bft)
12.05.2014 21:26 9,5 C 7,8 C 93 % 1011,3 hPa 0,0 l/m 0 min 0 min 0,0 UV-I 0 W/m 2,6 km/h (1 Bft)
12.05.2014 21:28 9,4 C 7,8 C 93 % 1011,2 hPa 0,0 l/m 0 min 0 min 0,0 UV-I 0 W/m 0,0 km/h (0 Bft)
12.05.2014 21:30 9,4 C 7,8 C 93 % 1011,2 hPa 0,0 l/m 0 min 0 min 0,0 UV-I 0 W/m 7,7 km/h (2 Bft)
12.05.2014 21:32 9,3 C 7,8 C 93 % 1011,2 hPa 0,0 l/m 0 min 0 min 0,0 UV-I 0 W/m 0,0 km/h (0 Bft)
12.05.2014 21:34 9,3 C 7,8 C 93 % 1011,2 hPa 0,0 l/m 0 min 0 min 0,0 UV-I 0 W/m 0,0 km/h (0 Bft)
12.05.2014 21:36 9,3 C 7,8 C 93 % 1011,3 hPa 0,0 l/m 0 min 0 min 0,0 UV-I 0 W/m 0,0 km/h (0 Bft)
12.05.2014 21:38 9,3 C 7,8 C 93 % 1011,3 hPa 0,0 l/m 0 min 0 min 0,0 UV-I 0 W/m 0,0 km/h (0 Bft)
12.05.2014 21:40 9,2 C 7,8 C 93 % 1011,2 hPa 0,0 l/m 0 min 0 min 0,0 UV-I 0 W/m 0,0 km/h (0 Bft)
12.05.2014 21:42 9,2 C 7,8 C 93 % 1011,3 hPa 0,0 l/m 0 min 0 min 0,0 UV-I 0 W/m 7,7 km/h (2 Bft)
12.05.2014 21:44 9,2 C 7,8 C 93 % 1011,3 hPa 0,0 l/m 0 min 2 min 0,0 UV-I 0 W/m 5,1 km/h (1 Bft)
12.05.2014 21:46 9,1 C 7,8 C 93 % 1011,2 hPa 0,0 l/m 0 min 2 min 0,0 UV-I 0 W/m 7,7 km/h (2 Bft)
12.05.2014 21:48 9,1 C 7,2 C 93 % 1011,3 hPa 0,0 l/m 0 min 0 min 0,0 UV-I 0 W/m 0,0 km/h (0 Bft)
12.05.2014 21:50 9,1 C 7,2 C 93 % 1011,3 hPa 0,0 l/m 0 min 0 min 0,0 UV-I 0 W/m 0,0 km/h (0 Bft)
12.05.2014 21:52 9,0 C 7,2 C 93 % 1011,3 hPa 0,0 l/m 0 min 0 min 0,0 UV-I 0 W/m 0,0 km/h (0 Bft)
12.05.2014 21:54 8,9 C 7,2 C 93 % 1011,3 hPa 0,0 l/m 0 min 0 min 0,0 UV-I 0 W/m 0,0 km/h (0 Bft)
12.05.2014 21:56 8,9 C 7,2 C 93 % 1011,3 hPa 0,0 l/m 0 min 0 min 0,0 UV-I 0 W/m 0,0 km/h (0 Bft)
12.05.2014 21:58 8,8 C 7,2 C 93 % 1011,3 hPa 0,0 l/m 0 min 0 min 0,0 UV-I 0 W/m 0,0 km/h (0 Bft)
12.05.2014 22:00 8,8 C 7,2 C 93 % 1011,3 hPa 0,0 l/m 0 min 0 min 0,0 UV-I 0 W/m 0,0 km/h (0 Bft)
12.05.2014 22:02 8,8 C 7,2 C 93 % 1011,4 hPa 0,0 l/m 0 min 0 min 0,0 UV-I 0 W/m 0,0 km/h (0 Bft)
12.05.2014 22:05 8,8 C 7,2 C 93 % 1011,5 hPa 0,0 l/m 0 min 0 min 0,0 UV-I 0 W/m 0,0 km/h (0 Bft)
12.05.2014 22:06 8,7 C 7,2 C 94 % 1011,5 hPa 0,0 l/m 0 min 0 min 0,0 UV-I 0 W/m 7,7 km/h (2 Bft)
12.05.2014 22:08 8,7 C 7,2 C 94 % 1011,4 hPa 0,0 l/m 0 min 0 min 0,0 UV-I 0 W/m 5,1 km/h (1 Bft)
12.05.2014 22:10 8,7 C 7,2 C 94 % 1011,4 hPa 0,0 l/m 0 min 0 min 0,0 UV-I 0 W/m 2,6 km/h (1 Bft)
12.05.2014 22:12 8,7 C 7,2 C 94 % 1011,4 hPa 0,0 l/m 0 min 0 min 0,0 UV-I 0 W/m 0,0 km/h (0 Bft)
12.05.2014 22:14 8,7 C 7,2 C 94 % 1011,5 hPa 0,0 l/m 0 min 0 min 0,0 UV-I 0 W/m 0,0 km/h (0 Bft)
12.05.2014 22:16 8,7 C 7,2 C 94 % 1011,5 hPa 0,0 l/m 0 min 0 min 0,0 UV-I 0 W/m 0,0 km/h (0 Bft)
12.05.2014 22:18 8,7 C 7,2 C 94 % 1011,5 hPa 0,0 l/m 0 min 0 min 0,0 UV-I 0 W/m 0,0 km/h (0 Bft)
12.05.2014 22:20 8,7 C 7,2 C 94 % 1011,6 hPa 0,0 l/m 0 min 0 min 0,0 UV-I 0 W/m 0,0 km/h (0 Bft)
12.05.2014 22:22 8,7 C 7,2 C 94 % 1011,6 hPa 0,0 l/m 0 min 0 min 0,0 UV-I 0 W/m 0,0 km/h (0 Bft)
12.05.2014 22:24 8,7 C 7,2 C 94 % 1011,6 hPa 0,0 l/m 0 min 0 min 0,0 UV-I 0 W/m 0,0 km/h (0 Bft)
12.05.2014 22:26 8,7 C 7,2 C 94 % 1011,6 hPa 0,0 l/m 0 min 0 min 0,0 UV-I 0 W/m 0,0 km/h (0 Bft)
12.05.2014 22:28 8,8 C 7,2 C 94 % 1011,7 hPa 0,0 l/m 0 min 0 min 0,0 UV-I 0 W/m 0,0 km/h (0 Bft)
12.05.2014 22:30 8,8 C 7,8 C 94 % 1011,7 hPa 0,0 l/m 0 min 0 min 0,0 UV-I 0 W/m 0,0 km/h (0 Bft)
12.05.2014 22:32 8,8 C 7,8 C 94 % 1011,7 hPa 0,0 l/m 0 min 0 min 0,0 UV-I 0 W/m 0,0 km/h (0 Bft)
12.05.2014 22:34 8,8 C 7,8 C 95 % 1011,7 hPa 0,0 l/m 0 min 0 min 0,0 UV-I 0 W/m 0,0 km/h (0 Bft)
12.05.2014 22:36 8,8 C 7,8 C 95 % 1011,7 hPa 0,0 l/m 0 min 0 min 0,0 UV-I 0 W/m 0,0 km/h (0 Bft)
12.05.2014 22:38 8,8 C 7,8 C 95 % 1011,7 hPa 0,0 l/m 0 min 0 min 0,0 UV-I 0 W/m 10,3 km/h (2 Bft)
12.05.2014 22:40 8,8 C 7,8 C 95 % 1011,8 hPa 0,0 l/m 0 min 0 min 0,0 UV-I 0 W/m 0,0 km/h (0 Bft)
12.05.2014 22:42 8,8 C 7,8 C 95 % 1011,7 hPa 0,0 l/m 0 min 0 min 0,0 UV-I 0 W/m 0,0 km/h (0 Bft)
12.05.2014 22:44 8,8 C 7,8 C 95 % 1011,8 hPa 0,0 l/m 0 min 2 min 0,0 UV-I 0 W/m 0,0 km/h (0 Bft)
12.05.2014 22:46 8,8 C 7,2 C 95 % 1011,8 hPa 0,0 l/m 0 min 2 min 0,0 UV-I 0 W/m 0,0 km/h (0 Bft)
12.05.2014 22:48 8,8 C 7,8 C 95 % 1011,8 hPa 0,0 l/m 0 min 2 min 0,0 UV-I 0 W/m 2,6 km/h (1 Bft)
12.05.2014 22:50 8,8 C 7,8 C 95 % 1011,8 hPa 0,2 l/m 0 min 2 min 0,0 UV-I 0 W/m 0,0 km/h (0 Bft)
12.05.2014 22:52 8,8 C 7,8 C 95 % 1011,8 hPa 0,0 l/m 0 min 2 min 0,0 UV-I 0 W/m 0,0 km/h (0 Bft)
12.05.2014 22:54 8,8 C 7,2 C 95 % 1011,8 hPa 0,0 l/m 0 min 2 min 0,0 UV-I 0 W/m 5,1 km/h (1 Bft)
12.05.2014 22:56 8,8 C 7,2 C 95 % 1011,8 hPa 0,0 l/m 0 min 2 min 0,0 UV-I 0 W/m 0,0 km/h (0 Bft)
12.05.2014 22:58 8,8 C 7,8 C 95 % 1011,8 hPa 0,0 l/m 0 min 2 min 0,0 UV-I 0 W/m 2,6 km/h (1 Bft)
12.05.2014 23:00 8,8 C 7,8 C 95 % 1011,8 hPa 0,0 l/m 0 min 0 min 0,0 UV-I 0 W/m 0,0 km/h (0 Bft)
12.05.2014 23:02 8,8 C 7,8 C 95 % 1011,8 hPa 0,0 l/m 0 min 0 min 0,0 UV-I 0 W/m 0,0 km/h (0 Bft)
12.05.2014 23:05 8,8 C 7,8 C 95 % 1011,9 hPa 0,0 l/m 0 min 2 min 0,0 UV-I 0 W/m 0,0 km/h (0 Bft)
12.05.2014 23:06 8,7 C 7,2 C 95 % 1011,9 hPa 0,0 l/m 0 min 1 min 0,0 UV-I 0 W/m 0,0 km/h (0 Bft)
12.05.2014 23:08 8,7 C 7,2 C 96 % 1011,9 hPa 0,2 l/m 0 min 2 min 0,0 UV-I 0 W/m 0,0 km/h (0 Bft)
12.05.2014 23:10 8,7 C 7,2 C 96 % 1011,9 hPa 0,2 l/m 0 min 2 min 0,0 UV-I 0 W/m 0,0 km/h (0 Bft)
12.05.2014 23:12 8,7 C 7,2 C 96 % 1011,9 hPa 0,0 l/m 0 min 2 min 0,0 UV-I 0 W/m 0,0 km/h (0 Bft)
12.05.2014 23:14 8,7 C 7,2 C 96 % 1011,9 hPa 0,0 l/m 0 min 2 min 0,0 UV-I 0 W/m 7,7 km/h (2 Bft)
12.05.2014 23:16 8,7 C 7,2 C 96 % 1012,0 hPa 0,0 l/m 0 min 2 min 0,0 UV-I 0 W/m 0,0 km/h (0 Bft)
12.05.2014 23:18 8,7 C 7,2 C 96 % 1011,9 hPa 0,0 l/m 0 min 2 min 0,0 UV-I 0 W/m 0,0 km/h (0 Bft)
12.05.2014 23:20 8,7 C 7,2 C 96 % 1012,0 hPa 0,0 l/m 0 min 0 min 0,0 UV-I 0 W/m 0,0 km/h (0 Bft)
12.05.2014 23:22 8,7 C 7,2 C 96 % 1012,0 hPa 0,0 l/m 0 min 0 min 0,0 UV-I 0 W/m 0,0 km/h (0 Bft)
12.05.2014 23:24 8,7 C 7,2 C 96 % 1011,9 hPa 0,0 l/m 0 min 0 min 0,0 UV-I 0 W/m 0,0 km/h (0 Bft)
12.05.2014 23:26 8,6 C 7,2 C 96 % 1011,9 hPa 0,0 l/m 0 min 0 min 0,0 UV-I 0 W/m 0,0 km/h (0 Bft)
12.05.2014 23:28 8,6 C 7,2 C 96 % 1012,0 hPa 0,0 l/m 0 min 0 min 0,0 UV-I 0 W/m 0,0 km/h (0 Bft)
12.05.2014 23:30 8,7 C 7,2 C 96 % 1012,1 hPa 0,0 l/m 0 min 0 min 0,0 UV-I 0 W/m 0,0 km/h (0 Bft)
12.05.2014 23:32 8,7 C 7,2 C 96 % 1012,2 hPa 0,0 l/m 0 min 0 min 0,0 UV-I 0 W/m 0,0 km/h (0 Bft)
12.05.2014 23:34 8,7 C 7,2 C 96 % 1012,2 hPa 0,0 l/m 0 min 0 min 0,0 UV-I 0 W/m 0,0 km/h (0 Bft)
12.05.2014 23:36 8,7 C 7,2 C 96 % 1012,2 hPa 0,0 l/m 0 min 2 min 0,0 UV-I 0 W/m 0,0 km/h (0 Bft)
12.05.2014 23:38 8,7 C 7,8 C 96 % 1012,2 hPa 0,0 l/m 0 min 2 min 0,0 UV-I 0 W/m 0,0 km/h (0 Bft)
12.05.2014 23:40 8,7 C 7,8 C 96 % 1012,2 hPa 0,0 l/m 0 min 2 min 0,0 UV-I 0 W/m 0,0 km/h (0 Bft)
12.05.2014 23:42 8,7 C 7,8 C 96 % 1012,2 hPa 0,2 l/m 0 min 2 min 0,0 UV-I 0 W/m 5,1 km/h (1 Bft)
12.05.2014 23:44 8,7 C 7,8 C 96 % 1012,2 hPa 0,0 l/m 0 min 2 min 0,0 UV-I 0 W/m 0,0 km/h (0 Bft)
12.05.2014 23:46 8,7 C 7,8 C 96 % 1012,2 hPa 0,0 l/m 0 min 2 min 0,0 UV-I 0 W/m 0,0 km/h (0 Bft)
12.05.2014 23:48 8,7 C 7,8 C 96 % 1012,2 hPa 0,0 l/m 0 min 2 min 0,0 UV-I 0 W/m 0,0 km/h (0 Bft)
12.05.2014 23:50 8,6 C 7,8 C 96 % 1012,2 hPa 0,0 l/m 0 min 2 min 0,0 UV-I 0 W/m 0,0 km/h (0 Bft)
12.05.2014 23:52 8,6 C 7,8 C 97 % 1012,2 hPa 0,0 l/m 0 min 2 min 0,0 UV-I 0 W/m 2,6 km/h (1 Bft)
12.05.2014 23:54 8,6 C 7,8 C 97 % 1012,2 hPa 0,0 l/m 0 min 2 min 0,0 UV-I 0 W/m 0,0 km/h (0 Bft)
12.05.2014 23:56 8,6 C 7,8 C 97 % 1012,2 hPa 0,0 l/m 0 min 0 min 0,0 UV-I 0 W/m 0,0 km/h (0 Bft)
12.05.2014 23:58 8,6 C 7,8 C 97 % 1012,2 hPa 0,0 l/m 0 min 2 min 0,0 UV-I 0 W/m 0,0 km/h (0 Bft)
_ Min-Zeit 23:24 15:10 13:16 00:00 - - - - - 00:02
Minimum _ 8,6 C 6,7 C 76 % 1006,3 hPa - - - - - 0,0 km/h (0 Bft)
_ Max-Zeit 13:12 13:08 16:00 23:32 14:36 09:36 03:54 10:38 13:08 06:32
Maximum _ 13,6 C 13,9 C 97 % 1012,2 hPa 1,2 l/m 2 min 2 min 2,3 UV-I 1025 W/m 38,6 km/h
S-SO (5 Bft)
Durchschnitt _ 10,1 C 8,9 C 88 % 1009,0 hPa #9,6 l/m #31 min. #6:17 h 1,0 UV-I 154 W/m 10,5 km/h (2 Bft)
© 2014 W. Hausmann